Time,TemperatureF,DewpointF,PressureIn,WindDirection,WindDirectionDegrees,WindSpeedMPH,WindSpeedGustMPH,Humidity,HourlyPrecipIn,Conditions,Clouds,dailyrainin,SolarRadiationWatts/m^2,SoftwareType,DateUTC
2013-03-01 00:00:00,50.5,48.0,30.28,East,81,0.0,-999.0,91,0.00,,,0.19,0,Wunderground v.1.15,2013-03-01 08:00:00,
2013-03-01 00:01:00,50.5,48.0,30.28,SW,215,0.0,-999.0,91,0.00,,,0.19,0,Wunderground v.1.15,2013-03-01 08:01:00,
2013-03-01 00:03:00,50.5,48.0,30.28,SE,128,2.0,-999.0,91,0.00,,,0.00,0,Wunderground v.1.15,2013-03-01 08:03:00,
2013-03-01 00:06:00,50.5,48.0,30.28,NW,304,0.0,-999.0,91,0.00,,,0.00,0,Wunderground v.1.15,2013-03-01 08:06:00,
2013-03-01 00:07:00,50.5,48.0,30.28,NW,304,0.0,-999.0,91,0.00,,,0.00,0,Wunderground v.1.15,2013-03-01 08:07:00,
2013-03-01 00:08:00,50.5,48.0,30.28,SE,146,3.0,-999.0,91,0.00,,,0.00,0,Wunderground v.1.15,2013-03-01 08:08:00,
2013-03-01 00:11:00,50.5,48.0,30.28,NE,43,3.0,-999.0,91,0.00,,,0.00,0,Wunderground v.1.15,2013-03-01 08:11:00,
2013-03-01 00:12:00,50.5,48.0,30.28,NE,43,0.0,-999.0,91,0.00,,,0.00,0,Wunderground v.1.15,2013-03-01 08:12:00,
2013-03-01 00:14:00,50.7,48.2,30.28,NW,324,1.0,-999.0,91,0.00,,,0.00,0,Wunderground v.1.15,2013-03-01 08:14:00,
2013-03-01 00:17:00,50.7,48.2,30.28,NW,324,2.0,-999.0,91,0.00,,,0.00,0,Wunderground v.1.15,2013-03-01 08:17:00,
2013-03-01 00:19:00,50.7,48.2,30.28,SSE,148,0.0,-999.0,91,0.00,,,0.00,0,Wunderground v.1.15,2013-03-01 08:19:00,
2013-03-01 00:22:00,50.7,48.2,30.28,NW,310,1.0,-999.0,91,0.00,,,0.00,0,Wunderground v.1.15,2013-03-01 08:22:00,
2013-03-01 00:25:00,50.7,48.2,30.28,ESE,118,2.0,-999.0,91,0.00,,,0.00,0,Wunderground v.1.15,2013-03-01 08:25:00,
2013-03-01 00:26:00,50.7,48.2,30.28,ESE,118,1.0,-999.0,91,0.00,,,0.00,0,Wunderground v.1.15,2013-03-01 08:26:00,
2013-03-01 00:27:00,50.7,48.2,30.28,NNE,21,4.0,-999.0,91,0.00,,,0.00,0,Wunderground v.1.15,2013-03-01 08:27:00,
2013-03-01 00:28:00,50.7,48.2,30.28,WSW,242,0.0,-999.0,91,0.00,,,0.00,0,Wunderground v.1.15,2013-03-01 08:28:00,
2013-03-01 00:30:00,50.7,48.2,30.28,ENE,60,5.0,-999.0,91,0.00,,,0.00,0,Wunderground v.1.15,2013-03-01 08:30:00,
2013-03-01 00:34:00,50.7,48.2,30.29,NW,306,2.0,-999.0,91,0.00,,,0.00,0,Wunderground v.1.15,2013-03-01 08:34:00,
2013-03-01 00:35:00,50.7,48.2,30.29,NW,306,0.0,-999.0,91,0.00,,,0.00,0,Wunderground v.1.15,2013-03-01 08:35:00,
2013-03-01 00:36:00,50.7,48.2,30.29,NW,306,0.0,-999.0,91,0.00,,,0.00,0,Wunderground v.1.15,2013-03-01 08:36:00,
2013-03-01 00:39:00,50.7,48.2,30.29,West,275,0.0,-999.0,91,0.00,,,0.00,0,Wunderground v.1.15,2013-03-01 08:39:00,
2013-03-01 00:41:00,50.7,48.2,30.29,ESE,117,1.0,-999.0,91,0.00,,,0.00,0,Wunderground v.1.15,2013-03-01 08:41:00,
2013-03-01 00:42:00,50.7,48.2,30.29,ESE,104,0.0,-999.0,91,0.00,,,0.00,0,Wunderground v.1.15,2013-03-01 08:42:00,
2013-03-01 00:44:00,50.7,48.2,30.29,ESE,104,0.0,-999.0,91,0.00,,,0.00,0,Wunderground v.1.15,2013-03-01 08:44:00,
2013-03-01 00:45:00,50.7,48.2,30.29,ESE,104,0.0,-999.0,91,0.00,,,0.00,0,Wunderground v.1.15,2013-03-01 08:45:00,
2013-03-01 00:49:00,50.7,48.2,30.29,ESE,102,1.0,-999.0,91,0.00,,,0.00,0,Wunderground v.1.15,2013-03-01 08:49:00,
2013-03-01 00:50:00,50.7,48.2,30.29,ESE,102,0.0,-999.0,91,0.00,,,0.00,0,Wunderground v.1.15,2013-03-01 08:50:00,
2013-03-01 00:54:00,50.7,48.2,30.29,ESE,107,4.0,-999.0,91,0.00,,,0.00,0,Wunderground v.1.15,2013-03-01 08:54:00,
2013-03-01 00:55:00,50.7,48.2,30.29,SE,135,1.0,-999.0,91,0.00,,,0.00,0,Wunderground v.1.15,2013-03-01 08:55:00,
2013-03-01 00:57:00,50.7,48.2,30.29,SE,133,0.0,-999.0,91,0.00,,,0.00,0,Wunderground v.1.15,2013-03-01 08:57:00,
2013-03-01 00:59:00,50.7,48.2,30.29,SSE,160,1.0,-999.0,91,0.00,,,0.00,0,Wunderground v.1.15,2013-03-01 08:59:00,
2013-03-01 01:00:00,50.7,48.2,30.29,SSE,160,0.0,-999.0,91,0.00,,,0.00,0,Wunderground v.1.15,2013-03-01 09:00:00,
2013-03-01 01:04:00,50.7,48.2,30.29,SE,133,0.0,-999.0,91,0.00,,,0.00,0,Wunderground v.1.15,2013-03-01 09:04:00,
2013-03-01 01:05:00,50.7,48.2,30.29,South,174,0.0,-999.0,91,0.00,,,0.00,0,Wunderground v.1.15,2013-03-01 09:05:00,
2013-03-01 01:10:00,50.8,48.3,30.29,SSE,160,3.0,-999.0,91,0.00,,,0.00,0,Wunderground v.1.15,2013-03-01 09:10:00,
2013-03-01 01:11:00,50.8,48.3,30.29,ENE,76,0.0,-999.0,91,0.00,,,0.00,0,Wunderground v.1.15,2013-03-01 09:11:00,
2013-03-01 01:12:00,50.8,48.3,30.29,NW,317,0.0,-999.0,91,0.00,,,0.00,0,Wunderground v.1.15,2013-03-01 09:12:00,
2013-03-01 01:16:00,51.0,48.5,30.29,ESE,119,0.0,-999.0,91,0.00,,,0.00,0,Wunderground v.1.15,2013-03-01 09:16:00,
2013-03-01 01:20:00,51.0,48.5,30.29,SE,145,0.0,-999.0,91,0.00,,,0.00,0,Wunderground v.1.15,2013-03-01 09:20:00,
2013-03-01 01:21:00,51.0,48.5,30.29,SSE,148,0.0,-999.0,91,0.00,,,0.00,0,Wunderground v.1.15,2013-03-01 09:21:00,
2013-03-01 01:22:00,51.0,48.5,30.29,SSE,148,0.0,-999.0,91,0.00,,,0.00,0,Wunderground v.1.15,2013-03-01 09:22:00,
2013-03-01 01:26:00,51.0,48.5,30.29,ESE,109,2.0,-999.0,91,0.00,,,0.00,0,Wunderground v.1.15,2013-03-01 09:26:00,
2013-03-01 01:28:00,51.0,48.5,30.29,NNE,25,0.0,-999.0,91,0.00,,,0.00,0,Wunderground v.1.15,2013-03-01 09:28:00,
2013-03-01 01:30:00,51.0,48.5,30.29,NNE,25,0.0,-999.0,91,0.00,,,0.00,0,Wunderground v.1.15,2013-03-01 09:30:00,
2013-03-01 01:31:00,51.0,48.5,30.30,NNE,25,0.0,-999.0,91,0.00,,,0.00,0,Wunderground v.1.15,2013-03-01 09:31:00,
2013-03-01 01:32:00,51.0,48.5,30.30,ESE,114,8.0,-999.0,91,0.00,,,0.00,0,Wunderground v.1.15,2013-03-01 09:32:00,
2013-03-01 01:36:00,51.1,48.6,30.30,WSW,237,1.0,-999.0,91,0.00,,,0.00,0,Wunderground v.1.15,2013-03-01 09:36:00,
2013-03-01 01:37:00,51.1,48.6,30.30,North,352,0.0,-999.0,91,0.00,,,0.00,0,Wunderground v.1.15,2013-03-01 09:37:00,
2013-03-01 01:42:00,51.1,48.6,30.30,East,98,0.0,-999.0,91,0.00,,,0.00,0,Wunderground v.1.15,2013-03-01 09:42:00,
2013-03-01 01:43:00,51.1,48.6,30.30,ESE,119,0.0,-999.0,91,0.00,,,0.00,0,Wunderground v.1.15,2013-03-01 09:43:00,
2013-03-01 01:44:00,51.1,48.6,30.30,West,269,0.0,-999.0,91,0.00,,,0.00,0,Wunderground v.1.15,2013-03-01 09:44:00,
2013-03-01 01:45:00,51.1,48.6,30.30,West,269,0.0,-999.0,91,0.00,,,0.00,0,Wunderground v.1.15,2013-03-01 09:45:00,
2013-03-01 01:49:00,51.1,48.6,30.30,SE,136,2.0,-999.0,91,0.00,,,0.00,0,Wunderground v.1.15,2013-03-01 09:49:00,
2013-03-01 01:51:00,51.1,48.6,30.30,SSW,204,1.0,-999.0,91,0.00,,,0.00,0,Wunderground v.1.15,2013-03-01 09:51:00,
2013-03-01 01:52:00,51.1,48.6,30.30,South,177,2.0,-999.0,91,0.00,,,0.00,0,Wunderground v.1.15,2013-03-01 09:52:00,
2013-03-01 01:54:00,51.1,48.6,30.30,South,177,0.0,-999.0,91,0.00,,,0.00,0,Wunderground v.1.15,2013-03-01 09:54:00,
2013-03-01 01:56:00,51.1,48.6,30.30,ESE,114,4.0,-999.0,91,0.00,,,0.00,0,Wunderground v.1.15,2013-03-01 09:56:00,
2013-03-01 01:57:00,51.1,48.6,30.30,ESE,121,1.0,-999.0,91,0.00,,,0.00,0,Wunderground v.1.15,2013-03-01 09:57:00,
2013-03-01 02:00:00,51.3,48.8,30.30,SE,128,0.0,-999.0,91,0.00,,,0.00,0,Wunderground v.1.15,2013-03-01 10:00:00,
2013-03-01 02:02:00,51.3,48.8,30.30,SE,128,0.0,-999.0,91,0.00,,,0.00,0,Wunderground v.1.15,2013-03-01 10:02:00,
2013-03-01 02:05:00,51.4,48.9,30.30,ESE,119,3.0,-999.0,91,0.00,,,0.00,0,Wunderground v.1.15,2013-03-01 10:05:00,
2013-03-01 02:06:00,51.4,48.9,30.30,SSE,150,3.0,-999.0,91,0.00,,,0.00,0,Wunderground v.1.15,2013-03-01 10:06:00,
2013-03-01 02:07:00,51.4,48.9,30.30,SE,128,4.0,-999.0,91,0.00,,,0.00,0,Wunderground v.1.15,2013-03-01 10:07:00,
2013-03-01 02:08:00,51.4,48.9,30.30,SE,128,1.0,-999.0,91,0.00,,,0.00,0,Wunderground v.1.15,2013-03-01 10:08:00,
2013-03-01 02:10:00,51.6,49.1,30.30,SSE,148,2.0,-999.0,91,0.00,,,0.00,0,Wunderground v.1.15,2013-03-01 10:10:00,
2013-03-01 02:11:00,51.6,49.1,30.30,SE,129,2.0,-999.0,91,0.00,,,0.00,0,Wunderground v.1.15,2013-03-01 10:11:00,
2013-03-01 02:12:00,51.6,49.1,30.30,East,98,3.0,-999.0,91,0.00,,,0.00,0,Wunderground v.1.15,2013-03-01 10:12:00,
2013-03-01 02:13:00,51.6,49.1,30.30,WNW,283,1.0,-999.0,91,0.00,,,0.00,0,Wunderground v.1.15,2013-03-01 10:13:00,
2013-03-01 02:16:00,51.6,49.1,30.29,SSW,210,2.0,-999.0,91,0.00,,,0.00,0,Wunderground v.1.15,2013-03-01 10:16:00,
2013-03-01 02:18:00,51.6,49.1,30.29,SSE,162,1.0,-999.0,91,0.00,,,0.00,0,Wunderground v.1.15,2013-03-01 10:18:00,
2013-03-01 02:21:00,51.6,49.1,30.29,SSE,159,1.0,-999.0,91,0.00,,,0.00,0,Wunderground v.1.15,2013-03-01 10:21:00,
2013-03-01 02:23:00,51.7,49.2,30.29,SE,135,1.0,-999.0,91,0.00,,,0.00,0,Wunderground v.1.15,2013-03-01 10:23:00,
2013-03-01 02:26:00,51.7,49.2,30.29,ESE,104,3.0,-999.0,91,0.00,,,0.00,0,Wunderground v.1.15,2013-03-01 10:26:00,
2013-03-01 02:28:00,51.7,49.2,30.29,SE,128,0.0,-999.0,91,0.00,,,0.00,0,Wunderground v.1.15,2013-03-01 10:28:00,
2013-03-01 02:31:00,51.7,49.2,30.28,SE,146,1.0,-999.0,91,0.00,,,0.00,0,Wunderground v.1.15,2013-03-01 10:31:00,
2013-03-01 02:33:00,51.7,49.2,30.28,SSW,196,2.0,-999.0,91,0.00,,,0.00,0,Wunderground v.1.15,2013-03-01 10:33:00,
2013-03-01 02:34:00,51.7,49.2,30.28,SE,136,2.0,-999.0,91,0.00,,,0.00,0,Wunderground v.1.15,2013-03-01 10:34:00,
2013-03-01 02:36:00,51.7,49.2,30.28,SE,146,5.0,-999.0,91,0.00,,,0.00,0,Wunderground v.1.15,2013-03-01 10:36:00,
2013-03-01 02:38:00,51.7,49.2,30.28,SE,143,1.0,-999.0,91,0.00,,,0.00,0,Wunderground v.1.15,2013-03-01 10:38:00,
2013-03-01 02:39:00,51.7,49.2,30.28,SSE,157,6.0,-999.0,91,0.00,,,0.00,0,Wunderground v.1.15,2013-03-01 10:39:00,
2013-03-01 02:43:00,51.9,49.4,30.28,SE,126,2.0,-999.0,91,0.00,,,0.00,0,Wunderground v.1.15,2013-03-01 10:43:00,
2013-03-01 02:44:00,51.9,49.4,30.28,ESE,118,3.0,-999.0,91,0.00,,,0.00,0,Wunderground v.1.15,2013-03-01 10:44:00,
2013-03-01 02:45:00,51.9,49.4,30.28,East,80,1.0,-999.0,91,0.00,,,0.00,0,Wunderground v.1.15,2013-03-01 10:45:00,
2013-03-01 02:48:00,51.9,49.4,30.28,NNW,337,0.0,-999.0,91,0.00,,,0.00,0,Wunderground v.1.15,2013-03-01 10:48:00,
2013-03-01 02:49:00,51.9,49.4,30.28,NNW,337,1.0,-999.0,91,0.00,,,0.00,0,Wunderground v.1.15,2013-03-01 10:49:00,
2013-03-01 02:50:00,51.9,49.4,30.28,South,170,2.0,-999.0,91,0.00,,,0.00,0,Wunderground v.1.15,2013-03-01 10:50:00,
2013-03-01 02:51:00,51.9,49.4,30.28,SSE,159,0.0,-999.0,91,0.00,,,0.00,0,Wunderground v.1.15,2013-03-01 10:51:00,
2013-03-01 02:53:00,51.9,49.4,30.28,ESE,104,0.0,-999.0,91,0.00,,,0.00,0,Wunderground v.1.15,2013-03-01 10:53:00,
2013-03-01 02:54:00,51.9,49.4,30.28,SE,145,2.0,-999.0,91,0.00,,,0.00,0,Wunderground v.1.15,2013-03-01 10:54:00,
2013-03-01 02:55:00,51.9,49.4,30.28,SSE,157,2.0,-999.0,91,0.00,,,0.00,0,Wunderground v.1.15,2013-03-01 10:55:00,
2013-03-01 02:57:00,51.9,49.4,30.28,SE,142,3.0,-999.0,91,0.00,,,0.00,0,Wunderground v.1.15,2013-03-01 10:57:00,
2013-03-01 02:58:00,51.9,49.4,30.28,South,177,1.0,-999.0,91,0.00,,,0.00,0,Wunderground v.1.15,2013-03-01 10:58:00,
2013-03-01 02:59:00,51.9,49.4,30.28,SSE,162,1.0,-999.0,91,0.00,,,0.00,0,Wunderground v.1.15,2013-03-01 10:59:00,
2013-03-01 03:00:00,51.9,49.4,30.28,SSE,162,3.0,-999.0,91,0.00,,,0.00,0,Wunderground v.1.15,2013-03-01 11:00:00,
2013-03-01 03:02:00,51.9,49.4,30.28,ESE,122,3.0,-999.0,91,0.00,,,0.00,0,Wunderground v.1.15,2013-03-01 11:02:00,
2013-03-01 03:04:00,51.9,49.4,30.28,SSE,163,1.0,-999.0,91,0.00,,,0.00,0,Wunderground v.1.15,2013-03-01 11:04:00,
2013-03-01 03:05:00,51.9,49.4,30.28,NE,39,1.0,-999.0,91,0.00,,,0.00,0,Wunderground v.1.15,2013-03-01 11:05:00,
2013-03-01 03:08:00,51.9,49.4,30.28,SE,141,3.0,-999.0,91,0.00,,,0.00,0,Wunderground v.1.15,2013-03-01 11:08:00,
2013-03-01 03:09:00,51.9,49.4,30.28,SE,141,2.0,-999.0,91,0.00,,,0.00,0,Wunderground v.1.15,2013-03-01 11:09:00,
2013-03-01 03:10:00,51.9,49.4,30.28,ESE,117,3.0,-999.0,91,0.00,,,0.00,0,Wunderground v.1.15,2013-03-01 11:10:00,
2013-03-01 03:13:00,51.9,49.4,30.28,SE,141,0.0,-999.0,91,0.00,,,0.00,0,Wunderground v.1.15,2013-03-01 11:13:00,
2013-03-01 03:14:00,51.9,49.4,30.28,WSW,251,4.0,-999.0,91,0.00,,,0.00,0,Wunderground v.1.15,2013-03-01 11:14:00,
2013-03-01 03:15:00,51.9,49.4,30.28,ESE,118,2.0,-999.0,91,0.00,,,0.00,0,Wunderground v.1.15,2013-03-01 11:15:00,
2013-03-01 03:16:00,51.9,49.4,30.29,SSE,156,1.0,-999.0,91,0.00,,,0.00,0,Wunderground v.1.15,2013-03-01 11:16:00,
2013-03-01 03:18:00,51.9,49.4,30.29,West,263,0.0,-999.0,91,0.00,,,0.00,0,Wunderground v.1.15,2013-03-01 11:18:00,
2013-03-01 03:19:00,51.9,49.4,30.29,West,259,0.0,-999.0,91,0.00,,,0.00,0,Wunderground v.1.15,2013-03-01 11:19:00,
2013-03-01 03:20:00,51.9,49.4,30.29,West,263,0.0,-999.0,91,0.00,,,0.00,0,Wunderground v.1.15,2013-03-01 11:20:00,
2013-03-01 03:21:00,51.9,49.4,30.29,ESE,122,3.0,-999.0,91,0.00,,,0.00,0,Wunderground v.1.15,2013-03-01 11:21:00,
2013-03-01 03:24:00,51.9,49.4,30.29,SE,132,5.0,-999.0,91,0.00,,,0.00,0,Wunderground v.1.15,2013-03-01 11:24:00,
2013-03-01 03:26:00,51.9,49.4,30.29,SSE,149,0.0,-999.0,91,0.00,,,0.00,0,Wunderground v.1.15,2013-03-01 11:26:00,
2013-03-01 03:29:00,51.9,49.4,30.29,South,174,2.0,-999.0,91,0.00,,,0.00,0,Wunderground v.1.15,2013-03-01 11:29:00,
2013-03-01 03:30:00,51.9,49.4,30.29,South,174,2.0,-999.0,91,0.00,,,0.00,0,Wunderground v.1.15,2013-03-01 11:30:00,
2013-03-01 03:31:00,51.9,49.4,30.28,South,179,0.0,-999.0,91,0.00,,,0.00,0,Wunderground v.1.15,2013-03-01 11:31:00,
2013-03-01 03:35:00,51.9,49.4,30.28,SE,125,3.0,-999.0,91,0.00,,,0.00,0,Wunderground v.1.15,2013-03-01 11:35:00,
2013-03-01 03:36:00,51.9,49.4,30.28,SSE,162,3.0,-999.0,91,0.00,,,0.00,0,Wunderground v.1.15,2013-03-01 11:36:00,
2013-03-01 03:40:00,51.7,49.2,30.28,ESE,121,0.0,-999.0,91,0.00,,,0.00,0,Wunderground v.1.15,2013-03-01 11:40:00,
2013-03-01 03:41:00,51.7,49.2,30.28,ESE,119,0.0,-999.0,91,0.00,,,0.00,0,Wunderground v.1.15,2013-03-01 11:41:00,
2013-03-01 03:45:00,51.7,49.2,30.28,South,172,4.0,-999.0,91,0.00,,,0.00,0,Wunderground v.1.15,2013-03-01 11:45:00,
2013-03-01 03:47:00,51.7,49.2,30.28,South,173,1.0,-999.0,91,0.00,,,0.00,0,Wunderground v.1.15,2013-03-01 11:47:00,
2013-03-01 03:50:00,51.9,-99.9,30.28,ESE,102,3.0,-999.0,255,0.00,,,0.00,0,Wunderground v.1.15,2013-03-01 11:50:00,
2013-03-01 03:52:00,51.7,49.2,30.28,SE,135,2.0,-999.0,91,0.00,,,0.00,0,Wunderground v.1.15,2013-03-01 11:52:00,
2013-03-01 03:53:00,51.9,49.4,30.28,South,189,0.0,-999.0,91,0.00,,,0.00,0,Wunderground v.1.15,2013-03-01 11:53:00,
2013-03-01 03:56:00,51.7,49.2,30.28,ESE,111,1.0,-999.0,91,0.00,,,0.00,0,Wunderground v.1.15,2013-03-01 11:56:00,
2013-03-01 03:57:00,51.9,49.4,30.28,ESE,108,2.0,-999.0,91,0.00,,,0.00,0,Wunderground v.1.15,2013-03-01 11:57:00,
2013-03-01 03:59:00,51.9,49.4,30.28,SE,135,5.0,-999.0,91,0.00,,,0.00,0,Wunderground v.1.15,2013-03-01 11:59:00,
2013-03-01 04:01:00,51.9,49.4,30.28,SE,146,0.0,-999.0,91,0.00,,,0.00,0,Wunderground v.1.15,2013-03-01 12:01:00,
2013-03-01 04:03:00,51.9,49.4,30.28,ESE,118,3.0,-999.0,91,0.00,,,0.00,0,Wunderground v.1.15,2013-03-01 12:03:00,
2013-03-01 04:04:00,51.9,49.4,30.28,SE,145,4.0,-999.0,91,0.00,,,0.00,0,Wunderground v.1.15,2013-03-01 12:04:00,
2013-03-01 04:06:00,51.9,49.4,30.28,ENE,69,0.0,-999.0,91,0.00,,,0.00,0,Wunderground v.1.15,2013-03-01 12:06:00,
2013-03-01 04:08:00,51.9,49.4,30.28,ESE,118,3.0,-999.0,91,0.00,,,0.00,0,Wunderground v.1.15,2013-03-01 12:08:00,
2013-03-01 04:09:00,51.9,49.4,30.28,South,170,1.0,-999.0,91,0.00,,,0.00,0,Wunderground v.1.15,2013-03-01 12:09:00,
2013-03-01 04:11:00,51.9,49.4,30.28,SSE,155,0.0,-999.0,91,0.00,,,0.00,0,Wunderground v.1.15,2013-03-01 12:11:00,
2013-03-01 04:13:00,51.9,49.4,30.28,SSW,197,1.0,-999.0,91,0.00,,,0.00,0,Wunderground v.1.15,2013-03-01 12:13:00,
2013-03-01 04:14:00,51.9,49.4,30.28,SE,131,2.0,-999.0,91,0.00,,,0.00,0,Wunderground v.1.15,2013-03-01 12:14:00,
2013-03-01 04:16:00,51.9,49.4,30.28,SSW,210,0.0,-999.0,91,0.00,,,0.00,0,Wunderground v.1.15,2013-03-01 12:16:00,
2013-03-01 04:18:00,51.9,49.4,30.28,SSE,150,2.0,-999.0,91,0.00,,,0.00,0,Wunderground v.1.15,2013-03-01 12:18:00,
2013-03-01 04:19:00,51.9,49.4,30.28,SSE,150,1.0,-999.0,91,0.00,,,0.00,0,Wunderground v.1.15,2013-03-01 12:19:00,
2013-03-01 04:22:00,51.9,49.4,30.28,ESE,111,2.0,-999.0,91,0.00,,,0.00,0,Wunderground v.1.15,2013-03-01 12:22:00,
2013-03-01 04:23:00,51.9,49.4,30.28,WSW,258,1.0,-999.0,91,0.00,,,0.00,0,Wunderground v.1.15,2013-03-01 12:23:00,
2013-03-01 04:24:00,51.9,49.4,30.28,WSW,258,1.0,-999.0,91,0.00,,,0.00,0,Wunderground v.1.15,2013-03-01 12:24:00,
2013-03-01 04:27:00,52.0,49.5,30.28,WNW,290,0.0,-999.0,91,0.00,,,0.00,0,Wunderground v.1.15,2013-03-01 12:27:00,
2013-03-01 04:29:00,52.0,49.5,30.28,West,273,0.0,-999.0,91,0.00,,,0.00,0,Wunderground v.1.15,2013-03-01 12:29:00,
2013-03-01 04:30:00,52.0,49.5,30.28,West,273,2.0,-999.0,91,0.00,,,0.00,0,Wunderground v.1.15,2013-03-01 12:30:00,
2013-03-01 04:32:00,51.9,49.4,30.28,SSE,150,1.0,-999.0,91,0.00,,,0.00,0,Wunderground v.1.15,2013-03-01 12:32:00,
2013-03-01 04:34:00,51.9,49.4,30.28,SW,229,2.0,-999.0,91,0.00,,,0.00,0,Wunderground v.1.15,2013-03-01 12:34:00,
2013-03-01 04:35:00,51.9,49.4,30.28,SSW,208,2.0,-999.0,91,0.00,,,0.00,0,Wunderground v.1.15,2013-03-01 12:35:00,
2013-03-01 04:38:00,51.9,49.4,30.28,SSE,162,0.0,-999.0,91,0.00,,,0.00,0,Wunderground v.1.15,2013-03-01 12:38:00,
2013-03-01 04:39:00,51.9,49.4,30.28,SW,225,2.0,-999.0,91,0.00,,,0.00,0,Wunderground v.1.15,2013-03-01 12:39:00,
2013-03-01 04:40:00,51.9,49.4,30.28,ESE,119,2.0,-999.0,91,0.00,,,0.00,0,Wunderground v.1.15,2013-03-01 12:40:00,
2013-03-01 04:43:00,51.9,49.4,30.28,SE,141,1.0,-999.0,91,0.00,,,0.00,0,Wunderground v.1.15,2013-03-01 12:43:00,
2013-03-01 04:44:00,51.9,49.4,30.28,SE,124,2.0,-999.0,91,0.00,,,0.00,0,Wunderground v.1.15,2013-03-01 12:44:00,
2013-03-01 04:45:00,51.9,49.4,30.28,SSE,160,7.0,-999.0,91,0.00,,,0.00,0,Wunderground v.1.15,2013-03-01 12:45:00,
2013-03-01 04:48:00,52.0,49.5,30.27,SW,214,2.0,-999.0,91,0.00,,,0.00,0,Wunderground v.1.15,2013-03-01 12:48:00,
2013-03-01 04:49:00,52.0,49.5,30.27,South,174,0.0,-999.0,91,0.00,,,0.00,0,Wunderground v.1.15,2013-03-01 12:49:00,
2013-03-01 04:50:00,52.0,49.5,30.27,SSE,156,1.0,-999.0,91,0.00,,,0.00,0,Wunderground v.1.15,2013-03-01 12:50:00,
2013-03-01 04:53:00,52.0,49.5,30.27,SSW,196,1.0,-999.0,91,0.00,,,0.00,0,Wunderground v.1.15,2013-03-01 12:53:00,
2013-03-01 04:54:00,52.0,49.5,30.27,SSE,156,1.0,-999.0,91,0.00,,,0.00,0,Wunderground v.1.15,2013-03-01 12:54:00,
2013-03-01 04:55:00,52.0,49.5,30.27,ESE,114,5.0,-999.0,91,0.00,,,0.00,0,Wunderground v.1.15,2013-03-01 12:55:00,
2013-03-01 04:56:00,52.0,49.5,30.27,NW,310,0.0,-999.0,91,0.00,,,0.00,0,Wunderground v.1.15,2013-03-01 12:56:00,
2013-03-01 04:59:00,52.0,49.5,30.27,East,88,0.0,-999.0,91,0.00,,,0.00,0,Wunderground v.1.15,2013-03-01 12:59:00,
2013-03-01 05:00:00,52.0,49.5,30.27,ENE,69,1.0,-999.0,91,0.00,,,0.00,0,Wunderground v.1.15,2013-03-01 13:00:00,
2013-03-01 05:02:00,52.0,49.5,30.27,SE,138,5.0,-999.0,91,0.00,,,0.00,0,Wunderground v.1.15,2013-03-01 13:02:00,
2013-03-01 05:04:00,52.0,49.5,30.27,ESE,122,2.0,-999.0,91,0.00,,,0.00,0,Wunderground v.1.15,2013-03-01 13:04:00,
2013-03-01 05:06:00,52.0,49.5,30.27,ESE,122,0.0,-999.0,91,0.00,,,0.00,0,Wunderground v.1.15,2013-03-01 13:06:00,
2013-03-01 05:07:00,52.0,49.5,30.27,SE,145,2.0,-999.0,91,0.00,,,0.00,0,Wunderground v.1.15,2013-03-01 13:07:00,
2013-03-01 05:10:00,52.0,49.5,30.27,ESE,117,3.0,-999.0,91,0.00,,,0.00,0,Wunderground v.1.15,2013-03-01 13:10:00,
2013-03-01 05:11:00,52.0,49.5,30.27,SE,126,3.0,-999.0,91,0.00,,,0.00,0,Wunderground v.1.15,2013-03-01 13:11:00,
2013-03-01 05:12:00,52.0,49.5,30.27,ESE,111,1.0,-999.0,91,0.00,,,0.00,0,Wunderground v.1.15,2013-03-01 13:12:00,
2013-03-01 05:15:00,52.0,49.5,30.27,SE,126,0.0,-999.0,91,0.00,,,0.00,0,Wunderground v.1.15,2013-03-01 13:15:00,
2013-03-01 05:16:00,52.0,49.5,30.27,SE,128,0.0,-999.0,91,0.00,,,0.00,0,Wunderground v.1.15,2013-03-01 13:16:00,
2013-03-01 05:17:00,52.0,49.5,30.27,SE,126,0.0,-999.0,91,0.00,,,0.00,0,Wunderground v.1.15,2013-03-01 13:17:00,
2013-03-01 05:20:00,52.0,49.5,30.27,SE,126,1.0,-999.0,91,0.00,,,0.00,0,Wunderground v.1.15,2013-03-01 13:20:00,
2013-03-01 05:21:00,52.0,49.5,30.27,ESE,114,1.0,-999.0,91,0.00,,,0.00,0,Wunderground v.1.15,2013-03-01 13:21:00,
2013-03-01 05:22:00,52.0,49.5,30.27,ESE,114,1.0,-999.0,91,0.00,,,0.00,0,Wunderground v.1.15,2013-03-01 13:22:00,
2013-03-01 05:25:00,52.0,49.5,30.27,SSW,197,1.0,-999.0,91,0.00,,,0.00,0,Wunderground v.1.15,2013-03-01 13:25:00,
2013-03-01 05:26:00,52.0,49.5,30.27,SE,141,1.0,-999.0,91,0.00,,,0.00,0,Wunderground v.1.15,2013-03-01 13:26:00,
2013-03-01 05:27:00,52.0,49.5,30.27,SE,136,0.0,-999.0,91,0.00,,,0.00,0,Wunderground v.1.15,2013-03-01 13:27:00,
2013-03-01 05:30:00,52.0,49.5,30.27,SE,136,0.0,-999.0,91,0.00,,,0.00,0,Wunderground v.1.15,2013-03-01 13:30:00,
2013-03-01 05:31:00,52.0,49.5,30.27,SE,128,2.0,-999.0,91,0.00,,,0.00,0,Wunderground v.1.15,2013-03-01 13:31:00,
2013-03-01 05:32:00,52.0,49.5,30.27,East,85,2.0,-999.0,91,0.00,,,0.00,0,Wunderground v.1.15,2013-03-01 13:32:00,
2013-03-01 05:33:00,52.0,49.5,30.27,WSW,238,0.0,-999.0,91,0.00,,,0.00,0,Wunderground v.1.15,2013-03-01 13:33:00,
2013-03-01 05:36:00,52.0,49.5,30.27,SE,124,2.0,-999.0,91,0.00,,,0.00,0,Wunderground v.1.15,2013-03-01 13:36:00,
2013-03-01 05:37:00,52.2,49.7,30.27,SE,124,1.0,-999.0,91,0.00,,,0.00,0,Wunderground v.1.15,2013-03-01 13:37:00,
2013-03-01 05:38:00,52.2,49.7,30.27,ESE,112,1.0,-999.0,91,0.00,,,0.00,0,Wunderground v.1.15,2013-03-01 13:38:00,
2013-03-01 05:41:00,52.2,49.7,30.27,NNE,22,1.0,-999.0,91,0.00,,,0.00,0,Wunderground v.1.15,2013-03-01 13:41:00,
2013-03-01 05:43:00,52.2,49.7,30.27,SE,141,0.0,-999.0,91,0.00,,,0.00,0,Wunderground v.1.15,2013-03-01 13:43:00,
2013-03-01 05:44:00,52.0,49.5,30.27,SE,139,0.0,-999.0,91,0.00,,,0.00,0,Wunderground v.1.15,2013-03-01 13:44:00,
2013-03-01 05:46:00,52.0,49.5,30.27,SE,124,0.0,-999.0,91,0.00,,,0.00,0,Wunderground v.1.15,2013-03-01 13:46:00,
2013-03-01 05:48:00,52.0,49.5,30.27,SSE,152,4.0,-999.0,91,0.00,,,0.00,0,Wunderground v.1.15,2013-03-01 13:48:00,
2013-03-01 05:49:00,52.0,49.5,30.27,SSE,152,1.0,-999.0,91,0.00,,,0.00,0,Wunderground v.1.15,2013-03-01 13:49:00,
2013-03-01 05:51:00,52.0,49.5,30.27,SE,139,1.0,-999.0,91,0.00,,,0.00,0,Wunderground v.1.15,2013-03-01 13:51:00,
2013-03-01 05:52:00,52.0,49.5,30.27,SE,139,0.0,-999.0,91,0.00,,,0.00,0,Wunderground v.1.15,2013-03-01 13:52:00,
2013-03-01 05:53:00,52.0,49.5,30.27,ESE,118,5.0,-999.0,91,0.00,,,0.00,0,Wunderground v.1.15,2013-03-01 13:53:00,
2013-03-01 05:54:00,52.2,49.7,30.27,South,174,6.0,-999.0,91,0.00,,,0.00,0,Wunderground v.1.15,2013-03-01 13:54:00,
2013-03-01 05:56:00,52.2,49.7,30.27,ESE,122,0.0,-999.0,91,0.00,,,0.00,0,Wunderground v.1.15,2013-03-01 13:56:00,
2013-03-01 05:57:00,52.2,49.7,30.27,SSE,165,0.0,-999.0,91,0.00,,,0.00,0,Wunderground v.1.15,2013-03-01 13:57:00,
2013-03-01 05:59:00,52.2,49.7,30.27,SE,143,4.0,-999.0,91,0.00,,,0.00,0,Wunderground v.1.15,2013-03-01 13:59:00,
2013-03-01 06:02:00,52.2,49.7,30.28,SSE,148,2.0,-999.0,91,0.00,,,0.00,0,Wunderground v.1.15,2013-03-01 14:02:00,
2013-03-01 06:03:00,52.2,49.7,30.28,SSE,162,0.0,-999.0,91,0.00,,,0.00,0,Wunderground v.1.15,2013-03-01 14:03:00,
2013-03-01 06:04:00,52.3,49.8,30.28,SSE,156,1.0,-999.0,91,0.00,,,0.00,0,Wunderground v.1.15,2013-03-01 14:04:00,
2013-03-01 06:05:00,52.3,49.8,30.28,SSE,157,1.0,-999.0,91,0.00,,,0.00,0,Wunderground v.1.15,2013-03-01 14:05:00,
2013-03-01 06:07:00,52.2,49.7,30.28,South,183,0.0,-999.0,91,0.00,,,0.00,0,Wunderground v.1.15,2013-03-01 14:07:00,
2013-03-01 06:08:00,52.2,49.7,30.28,NE,40,1.0,-999.0,91,0.00,,,0.00,0,Wunderground v.1.15,2013-03-01 14:08:00,
2013-03-01 06:09:00,52.2,49.7,30.28,SSE,149,2.0,-999.0,91,0.00,,,0.00,0,Wunderground v.1.15,2013-03-01 14:09:00,
2013-03-01 06:10:00,52.2,49.7,30.28,SSE,149,0.0,-999.0,91,0.00,,,0.00,0,Wunderground v.1.15,2013-03-01 14:10:00,
2013-03-01 06:12:00,52.2,49.7,30.28,South,169,2.0,-999.0,91,0.00,,,0.00,0,Wunderground v.1.15,2013-03-01 14:12:00,
2013-03-01 06:13:00,52.2,49.7,30.28,SSE,153,3.0,-999.0,91,0.00,,,0.00,0,Wunderground v.1.15,2013-03-01 14:13:00,
2013-03-01 06:15:00,52.2,49.7,30.28,SE,146,1.0,-999.0,91,0.00,,,0.00,0,Wunderground v.1.15,2013-03-01 14:15:00,
2013-03-01 06:17:00,52.2,49.7,30.27,SSW,196,2.0,-999.0,91,0.00,,,0.00,0,Wunderground v.1.15,2013-03-01 14:17:00,
2013-03-01 06:18:00,52.2,49.7,30.27,SSE,167,2.0,-999.0,91,0.00,,,0.00,0,Wunderground v.1.15,2013-03-01 14:18:00,
2013-03-01 06:20:00,52.2,49.7,30.27,SSE,156,3.0,-999.0,91,0.00,,,0.00,0,Wunderground v.1.15,2013-03-01 14:20:00,
2013-03-01 06:22:00,52.2,49.7,30.27,West,280,1.0,-999.0,91,0.00,,,0.00,0,Wunderground v.1.15,2013-03-01 14:22:00,
2013-03-01 06:24:00,52.2,49.7,30.27,SE,143,2.0,-999.0,91,0.00,,,0.00,0,Wunderground v.1.15,2013-03-01 14:24:00,
2013-03-01 06:25:00,52.2,49.7,30.27,ESE,118,6.0,-999.0,91,0.00,,,0.00,0,Wunderground v.1.15,2013-03-01 14:25:00,
2013-03-01 06:26:00,52.2,49.7,30.27,East,97,7.0,-999.0,91,0.00,,,0.00,0,Wunderground v.1.15,2013-03-01 14:26:00,
2013-03-01 06:27:00,52.2,49.7,30.27,SSE,155,2.0,-999.0,91,0.00,,,0.00,0,Wunderground v.1.15,2013-03-01 14:27:00,
2013-03-01 06:29:00,52.2,49.7,30.27,North,1,1.0,-999.0,91,0.00,,,0.00,0,Wunderground v.1.15,2013-03-01 14:29:00,
2013-03-01 06:30:00,52.2,49.7,30.28,South,179,2.0,-999.0,91,0.00,,,0.00,0,Wunderground v.1.15,2013-03-01 14:30:00,
2013-03-01 06:31:00,52.2,49.7,30.28,SSE,155,2.0,-999.0,91,0.00,,,0.00,0,Wunderground v.1.15,2013-03-01 14:31:00,
2013-03-01 06:33:00,52.2,49.7,30.28,South,179,2.0,-999.0,91,0.00,,,0.00,0,Wunderground v.1.15,2013-03-01 14:33:00,
2013-03-01 06:34:00,52.2,49.7,30.28,SE,129,1.0,-999.0,91,0.00,,,0.00,0,Wunderground v.1.15,2013-03-01 14:34:00,
2013-03-01 06:36:00,52.2,49.7,30.28,SSW,197,1.0,-999.0,91,0.00,,,0.00,0,Wunderground v.1.15,2013-03-01 14:36:00,
2013-03-01 06:39:00,52.2,49.7,30.28,South,184,0.0,-999.0,91,0.00,,,0.00,0,Wunderground v.1.15,2013-03-01 14:39:00,
2013-03-01 06:40:00,52.2,49.7,30.28,South,184,0.0,-999.0,91,0.00,,,0.00,0,Wunderground v.1.15,2013-03-01 14:40:00,
2013-03-01 06:41:00,52.2,49.7,30.28,SSE,160,5.0,-999.0,91,0.00,,,0.00,0,Wunderground v.1.15,2013-03-01 14:41:00,
2013-03-01 06:44:00,52.2,49.7,30.28,SSE,156,0.0,-999.0,91,0.00,,,0.00,0,Wunderground v.1.15,2013-03-01 14:44:00,
2013-03-01 06:45:00,52.2,49.7,30.28,SSW,196,1.0,-999.0,91,0.00,,,0.00,0,Wunderground v.1.15,2013-03-01 14:45:00,
2013-03-01 06:46:00,52.2,49.7,30.27,SSW,194,0.0,-999.0,91,0.00,,,0.00,0,Wunderground v.1.15,2013-03-01 14:46:00,
2013-03-01 06:50:00,52.2,49.7,30.27,SSE,148,3.0,-999.0,91,0.00,,,0.00,0,Wunderground v.1.15,2013-03-01 14:50:00,
2013-03-01 06:51:00,52.2,49.7,30.27,West,272,0.0,-999.0,91,0.00,,,0.00,0,Wunderground v.1.15,2013-03-01 14:51:00,
2013-03-01 06:55:00,52.2,49.7,30.27,SE,145,1.0,-999.0,91,0.00,,,0.00,0,Wunderground v.1.15,2013-03-01 14:55:00,
2013-03-01 06:57:00,52.2,49.7,30.27,South,184,0.0,-999.0,91,0.00,,,0.00,0,Wunderground v.1.15,2013-03-01 14:57:00,
2013-03-01 07:00:00,52.2,49.7,30.27,SSE,165,2.0,-999.0,91,0.00,,,0.00,0,Wunderground v.1.15,2013-03-01 15:00:00,
2013-03-01 07:02:00,52.2,49.7,30.27,SE,128,1.0,-999.0,91,0.00,,,0.00,0,Wunderground v.1.15,2013-03-01 15:02:00,
2013-03-01 07:05:00,52.2,49.7,30.27,NW,310,0.0,-999.0,91,0.00,,,0.00,0,Wunderground v.1.15,2013-03-01 15:05:00,
2013-03-01 07:07:00,52.0,49.5,30.27,SE,133,5.0,-999.0,91,0.00,,,0.00,0,Wunderground v.1.15,2013-03-01 15:07:00,
2013-03-01 07:10:00,52.0,49.5,30.27,SE,143,3.0,-999.0,91,0.00,,,0.00,0,Wunderground v.1.15,2013-03-01 15:10:00,
2013-03-01 07:11:00,52.0,49.5,30.27,SE,145,2.0,-999.0,91,0.00,,,0.00,0,Wunderground v.1.15,2013-03-01 15:11:00,
2013-03-01 07:12:00,52.0,49.5,30.27,SE,145,0.0,-999.0,91,0.00,,,0.00,0,Wunderground v.1.15,2013-03-01 15:12:00,
2013-03-01 07:16:00,52.0,49.5,30.28,West,276,2.0,-999.0,91,0.00,,,0.00,0,Wunderground v.1.15,2013-03-01 15:16:00,
2013-03-01 07:17:00,52.0,49.5,30.28,SSE,156,1.0,-999.0,91,0.00,,,0.00,0,Wunderground v.1.15,2013-03-01 15:17:00,
2013-03-01 07:18:00,52.0,49.5,30.28,SE,131,0.0,-999.0,91,0.00,,,0.00,0,Wunderground v.1.15,2013-03-01 15:18:00,
2013-03-01 07:21:00,52.0,49.5,30.28,WSW,256,5.0,-999.0,91,0.00,,,0.00,0,Wunderground v.1.15,2013-03-01 15:21:00,
2013-03-01 07:22:00,52.0,49.5,30.28,SSE,149,0.0,-999.0,91,0.00,,,0.00,0,Wunderground v.1.15,2013-03-01 15:22:00,
2013-03-01 07:23:00,52.0,49.5,30.28,East,90,1.0,-999.0,91,0.00,,,0.00,0,Wunderground v.1.15,2013-03-01 15:23:00,
2013-03-01 07:26:00,51.9,49.4,30.28,South,179,2.0,-999.0,91,0.00,,,0.00,0,Wunderground v.1.15,2013-03-01 15:26:00,
2013-03-01 07:27:00,51.9,49.4,30.28,South,186,1.0,-999.0,91,0.00,,,0.00,0,Wunderground v.1.15,2013-03-01 15:27:00,
2013-03-01 07:28:00,51.9,49.4,30.28,South,189,0.0,-999.0,91,0.00,,,0.00,0,Wunderground v.1.15,2013-03-01 15:28:00,
2013-03-01 07:31:00,51.7,49.2,30.28,SSE,156,0.0,-999.0,91,0.00,,,0.00,5,Wunderground v.1.15,2013-03-01 15:31:00,
2013-03-01 07:32:00,51.7,49.2,30.28,SW,228,2.0,-999.0,91,0.00,,,0.00,5,Wunderground v.1.15,2013-03-01 15:32:00,
2013-03-01 07:33:00,51.7,49.2,30.28,South,180,5.0,-999.0,91,0.00,,,0.00,5,Wunderground v.1.15,2013-03-01 15:33:00,
2013-03-01 07:37:00,51.7,49.2,30.28,NW,310,0.0,-999.0,91,0.00,,,0.00,5,Wunderground v.1.15,2013-03-01 15:37:00,
2013-03-01 07:38:00,51.7,49.2,30.28,SSE,159,2.0,-999.0,91,0.00,,,0.00,5,Wunderground v.1.15,2013-03-01 15:38:00,
2013-03-01 07:39:00,51.7,49.2,30.28,SSE,159,1.0,-999.0,91,0.00,,,0.00,7,Wunderground v.1.15,2013-03-01 15:39:00,
2013-03-01 07:42:00,51.7,49.2,30.28,WSW,244,1.0,-999.0,91,0.00,,,0.00,7,Wunderground v.1.15,2013-03-01 15:42:00,
2013-03-01 07:43:00,51.7,49.2,30.28,SSW,197,1.0,-999.0,91,0.00,,,0.00,9,Wunderground v.1.15,2013-03-01 15:43:00,
2013-03-01 07:44:00,51.7,49.2,30.28,West,265,1.0,-999.0,91,0.00,,,0.00,9,Wunderground v.1.15,2013-03-01 15:44:00,
2013-03-01 07:47:00,51.7,49.2,30.29,SSE,152,2.0,-999.0,91,0.00,,,0.00,9,Wunderground v.1.15,2013-03-01 15:47:00,
2013-03-01 07:48:00,51.7,49.2,30.29,South,179,2.0,-999.0,91,0.00,,,0.00,9,Wunderground v.1.15,2013-03-01 15:48:00,
2013-03-01 07:49:00,51.7,49.2,30.29,SSE,167,2.0,-999.0,91,0.00,,,0.00,9,Wunderground v.1.15,2013-03-01 15:49:00,
2013-03-01 07:52:00,51.7,49.2,30.29,WNW,285,2.0,-999.0,91,0.00,,,0.00,11,Wunderground v.1.15,2013-03-01 15:52:00,
2013-03-01 07:53:00,51.7,49.2,30.29,SSE,160,3.0,-999.0,91,0.00,,,0.00,11,Wunderground v.1.15,2013-03-01 15:53:00,
2013-03-01 07:54:00,51.7,49.2,30.29,SSE,162,5.0,-999.0,91,0.00,,,0.00,11,Wunderground v.1.15,2013-03-01 15:54:00,
2013-03-01 07:57:00,51.7,49.2,30.29,South,174,2.0,-999.0,91,0.00,,,0.00,12,Wunderground v.1.15,2013-03-01 15:57:00,
2013-03-01 07:59:00,51.7,49.2,30.29,South,170,5.0,-999.0,91,0.00,,,0.00,16,Wunderground v.1.15,2013-03-01 15:59:00,
2013-03-01 08:00:00,51.9,49.4,30.29,SE,124,1.0,-999.0,91,0.00,,,0.00,16,Wunderground v.1.15,2013-03-01 16:00:00,
2013-03-01 08:02:00,51.9,49.4,30.30,South,173,2.0,-999.0,91,0.00,,,0.00,16,Wunderground v.1.15,2013-03-01 16:02:00,
2013-03-01 08:04:00,51.9,49.4,30.30,SW,227,0.0,-999.0,91,0.00,,,0.00,18,Wunderground v.1.15,2013-03-01 16:04:00,
2013-03-01 08:05:00,51.9,49.4,30.30,SSW,196,2.0,-999.0,91,0.00,,,0.00,18,Wunderground v.1.15,2013-03-01 16:05:00,
2013-03-01 08:07:00,51.9,49.4,30.30,South,184,1.0,-999.0,91,0.00,,,0.00,30,Wunderground v.1.15,2013-03-01 16:07:00,
2013-03-01 08:09:00,51.9,49.4,30.30,SSW,197,2.0,-999.0,91,0.00,,,0.00,30,Wunderground v.1.15,2013-03-01 16:09:00,
2013-03-01 08:10:00,51.9,49.4,30.30,South,190,0.0,-999.0,91,0.00,,,0.00,30,Wunderground v.1.15,2013-03-01 16:10:00,
2013-03-01 08:12:00,51.9,49.4,30.30,SSE,167,2.0,-999.0,91,0.00,,,0.00,25,Wunderground v.1.15,2013-03-01 16:12:00,
2013-03-01 08:14:00,51.9,49.4,30.30,SSE,166,2.0,-999.0,91,0.00,,,0.00,25,Wunderground v.1.15,2013-03-01 16:14:00,
2013-03-01 08:15:00,51.9,49.4,30.30,SE,138,3.0,-999.0,91,0.00,,,0.00,25,Wunderground v.1.15,2013-03-01 16:15:00,
2013-03-01 08:16:00,51.9,49.4,30.31,SE,135,1.0,-999.0,91,0.00,,,0.00,28,Wunderground v.1.15,2013-03-01 16:16:00,
2013-03-01 08:18:00,51.9,49.4,30.31,WSW,244,3.0,-999.0,91,0.00,,,0.00,28,Wunderground v.1.15,2013-03-01 16:18:00,
2013-03-01 08:20:00,51.9,49.4,30.31,SW,220,1.0,-999.0,91,0.00,,,0.00,26,Wunderground v.1.15,2013-03-01 16:20:00,
2013-03-01 08:21:00,51.9,49.4,30.31,WSW,245,5.0,-999.0,91,0.00,,,0.00,26,Wunderground v.1.15,2013-03-01 16:21:00,
2013-03-01 08:23:00,51.9,49.4,30.31,SE,146,2.0,-999.0,91,0.00,,,0.00,26,Wunderground v.1.15,2013-03-01 16:23:00,
2013-03-01 08:25:00,51.9,49.4,30.31,WNW,290,2.0,-999.0,91,0.00,,,0.00,23,Wunderground v.1.15,2013-03-01 16:25:00,
2013-03-01 08:26:00,51.7,49.2,30.31,NNE,29,1.0,-999.0,91,0.00,,,0.00,23,Wunderground v.1.15,2013-03-01 16:26:00,
2013-03-01 08:28:00,51.7,49.2,30.31,East,91,2.0,-999.0,91,0.00,,,0.00,40,Wunderground v.1.15,2013-03-01 16:28:00,
2013-03-01 08:30:00,51.7,49.2,30.31,West,263,7.0,-999.0,91,0.00,,,0.00,40,Wunderground v.1.15,2013-03-01 16:30:00,
2013-03-01 08:31:00,51.7,49.2,30.31,SSE,160,6.0,-999.0,91,0.00,,,0.00,40,Wunderground v.1.15,2013-03-01 16:31:00,
2013-03-01 08:34:00,51.7,49.2,30.31,SE,143,2.0,-999.0,91,0.00,,,0.00,55,Wunderground v.1.15,2013-03-01 16:34:00,
2013-03-01 08:35:00,51.7,49.2,30.31,SSE,150,2.0,-999.0,91,0.00,,,0.00,55,Wunderground v.1.15,2013-03-01 16:35:00,
2013-03-01 08:36:00,51.7,49.2,30.31,NW,306,2.0,-999.0,91,0.00,,,0.00,55,Wunderground v.1.15,2013-03-01 16:36:00,
2013-03-01 08:39:00,51.9,49.4,30.31,SSW,207,0.0,-999.0,91,0.00,,,0.00,48,Wunderground v.1.15,2013-03-01 16:39:00,
2013-03-01 08:40:00,51.9,49.4,30.31,SSE,153,2.0,-999.0,91,0.00,,,0.00,44,Wunderground v.1.15,2013-03-01 16:40:00,
2013-03-01 08:41:00,51.9,49.4,30.31,WSW,248,2.0,-999.0,91,0.00,,,0.00,44,Wunderground v.1.15,2013-03-01 16:41:00,
2013-03-01 08:42:00,51.9,49.4,30.31,South,189,0.0,-999.0,91,0.00,,,0.00,44,Wunderground v.1.15,2013-03-01 16:42:00,
2013-03-01 08:44:00,51.9,49.4,30.31,SSE,153,1.0,-999.0,91,0.00,,,0.00,44,Wunderground v.1.15,2013-03-01 16:44:00,
2013-03-01 08:46:00,51.9,49.1,30.31,South,181,5.0,-999.0,90,0.00,,,0.00,46,Wunderground v.1.15,2013-03-01 16:46:00,
2013-03-01 08:47:00,52.0,49.2,30.31,South,181,0.0,-999.0,90,0.00,,,0.00,46,Wunderground v.1.15,2013-03-01 16:47:00,
2013-03-01 08:50:00,52.0,49.2,30.31,SW,227,2.0,-999.0,90,0.00,,,0.00,40,Wunderground v.1.15,2013-03-01 16:50:00,
2013-03-01 08:51:00,52.0,49.2,30.31,SE,146,8.0,-999.0,90,0.00,,,0.00,40,Wunderground v.1.15,2013-03-01 16:51:00,
2013-03-01 08:52:00,52.0,49.2,30.31,SE,143,0.0,-999.0,90,0.00,,,0.00,40,Wunderground v.1.15,2013-03-01 16:52:00,
2013-03-01 08:55:00,52.0,49.2,30.31,SSE,162,6.0,-999.0,90,0.00,,,0.00,40,Wunderground v.1.15,2013-03-01 16:55:00,
2013-03-01 08:56:00,52.0,49.2,30.31,SE,124,2.0,-999.0,90,0.00,,,0.00,40,Wunderground v.1.15,2013-03-01 16:56:00,
2013-03-01 08:57:00,52.2,49.4,30.31,SSE,159,2.0,-999.0,90,0.00,,,0.00,39,Wunderground v.1.15,2013-03-01 16:57:00,
2013-03-01 09:01:00,52.0,49.2,30.31,SE,145,1.0,-999.0,90,0.00,,,0.00,39,Wunderground v.1.15,2013-03-01 17:01:00,
2013-03-01 09:02:00,52.0,49.2,30.31,West,263,0.0,-999.0,90,0.00,,,0.00,30,Wunderground v.1.15,2013-03-01 17:02:00,
2013-03-01 09:06:00,52.0,49.2,30.31,SSE,156,2.0,-999.0,90,0.00,,,0.00,32,Wunderground v.1.15,2013-03-01 17:06:00,
2013-03-01 09:07:00,52.0,49.5,30.31,West,270,2.0,-999.0,91,0.00,,,0.00,32,Wunderground v.1.15,2013-03-01 17:07:00,
2013-03-01 09:11:00,51.9,49.1,30.31,SSE,156,1.0,-999.0,90,0.00,,,0.00,32,Wunderground v.1.15,2013-03-01 17:11:00,
2013-03-01 09:12:00,51.9,49.1,30.31,SSE,157,1.0,-999.0,90,0.00,,,0.00,32,Wunderground v.1.15,2013-03-01 17:12:00,
2013-03-01 09:13:00,51.9,49.1,30.31,SE,143,1.0,-999.0,90,0.00,,,0.00,32,Wunderground v.1.15,2013-03-01 17:13:00,
2013-03-01 09:16:00,51.9,49.1,30.31,SSE,148,0.0,-999.0,90,0.00,,,0.00,32,Wunderground v.1.15,2013-03-01 17:16:00,
2013-03-01 09:17:00,51.9,49.1,30.31,SSE,148,0.0,-999.0,90,0.00,,,0.00,32,Wunderground v.1.15,2013-03-01 17:17:00,
2013-03-01 09:18:00,51.9,49.1,30.31,SE,142,3.0,-999.0,90,0.00,,,0.00,33,Wunderground v.1.15,2013-03-01 17:18:00,
2013-03-01 09:19:00,51.9,49.1,30.31,SE,143,0.0,-999.0,90,0.00,,,0.00,33,Wunderground v.1.15,2013-03-01 17:19:00,
2013-03-01 09:22:00,51.9,49.1,30.31,East,88,8.0,-999.0,90,0.00,,,0.00,33,Wunderground v.1.15,2013-03-01 17:22:00,
2013-03-01 09:23:00,51.9,49.1,30.31,WSW,251,2.0,-999.0,90,0.00,,,0.00,32,Wunderground v.1.15,2013-03-01 17:23:00,
2013-03-01 09:24:00,51.9,49.1,30.31,West,276,1.0,-999.0,90,0.00,,,0.00,32,Wunderground v.1.15,2013-03-01 17:24:00,
2013-03-01 09:27:00,51.9,49.1,30.31,SE,133,3.0,-999.0,90,0.00,,,0.00,32,Wunderground v.1.15,2013-03-01 17:27:00,
2013-03-01 09:28:00,51.9,49.1,30.31,SSE,148,5.0,-999.0,90,0.00,,,0.00,32,Wunderground v.1.15,2013-03-01 17:28:00,
2013-03-01 09:29:00,52.0,49.2,30.31,SSE,150,2.0,-999.0,90,0.00,,,0.00,32,Wunderground v.1.15,2013-03-01 17:29:00,
2013-03-01 09:32:00,52.0,49.2,30.32,SE,128,6.0,-999.0,90,0.00,,,0.00,33,Wunderground v.1.15,2013-03-01 17:32:00,
2013-03-01 09:33:00,52.0,49.2,30.32,ESE,114,0.0,-999.0,90,0.00,,,0.00,33,Wunderground v.1.15,2013-03-01 17:33:00,
2013-03-01 09:34:00,52.0,49.2,30.32,ESE,114,0.0,-999.0,90,0.00,,,0.00,33,Wunderground v.1.15,2013-03-01 17:34:00,
2013-03-01 09:37:00,52.0,49.2,30.32,West,275,0.0,-999.0,90,0.00,,,0.00,33,Wunderground v.1.15,2013-03-01 17:37:00,
2013-03-01 09:38:00,52.0,49.2,30.32,SSE,157,6.0,-999.0,90,0.00,,,0.00,33,Wunderground v.1.15,2013-03-01 17:38:00,
2013-03-01 09:40:00,52.0,49.2,30.32,SE,133,2.0,-999.0,90,0.00,,,0.00,35,Wunderground v.1.15,2013-03-01 17:40:00,
2013-03-01 09:42:00,52.0,49.2,30.32,SW,225,0.0,-999.0,90,0.00,,,0.00,35,Wunderground v.1.15,2013-03-01 17:42:00,
2013-03-01 09:43:00,52.0,49.2,30.32,SW,225,0.0,-999.0,90,0.00,,,0.00,35,Wunderground v.1.15,2013-03-01 17:43:00,
2013-03-01 09:45:00,52.0,48.9,30.32,ENE,67,8.0,-999.0,89,0.00,,,0.00,37,Wunderground v.1.15,2013-03-01 17:45:00,
2013-03-01 09:48:00,52.2,49.1,30.32,SSE,165,7.0,-999.0,89,0.00,,,0.00,35,Wunderground v.1.15,2013-03-01 17:48:00,
2013-03-01 09:50:00,52.2,49.1,30.32,SE,124,4.0,-999.0,89,0.00,,,0.00,35,Wunderground v.1.15,2013-03-01 17:50:00,
2013-03-01 09:53:00,52.2,49.1,30.32,SE,145,2.0,-999.0,89,0.00,,,0.00,35,Wunderground v.1.15,2013-03-01 17:53:00,
2013-03-01 09:54:00,52.2,49.1,30.32,SE,124,7.0,-999.0,89,0.00,,,0.00,35,Wunderground v.1.15,2013-03-01 17:54:00,
2013-03-01 09:56:00,52.3,49.2,30.32,WSW,245,1.0,-999.0,89,0.00,,,0.00,42,Wunderground v.1.15,2013-03-01 17:56:00,
2013-03-01 09:58:00,52.3,49.2,30.32,SE,143,2.0,-999.0,89,0.00,,,0.00,42,Wunderground v.1.15,2013-03-01 17:58:00,
2013-03-01 09:59:00,52.3,49.2,30.32,SE,143,2.0,-999.0,89,0.00,,,0.00,42,Wunderground v.1.15,2013-03-01 17:59:00,
2013-03-01 10:02:00,52.3,49.2,30.32,SE,141,5.0,-999.0,89,0.00,,,0.00,40,Wunderground v.1.15,2013-03-01 18:02:00,
2013-03-01 10:03:00,52.3,49.2,30.32,SSE,148,0.0,-999.0,89,0.00,,,0.00,40,Wunderground v.1.15,2013-03-01 18:03:00,
2013-03-01 10:04:00,52.3,49.2,30.32,SSE,148,2.0,-999.0,89,0.00,,,0.00,49,Wunderground v.1.15,2013-03-01 18:04:00,
2013-03-01 10:07:00,52.3,49.2,30.32,SSE,160,4.0,-999.0,89,0.00,,,0.00,49,Wunderground v.1.15,2013-03-01 18:07:00,
2013-03-01 10:08:00,52.3,49.2,30.32,SSE,160,0.0,-999.0,89,0.00,,,0.00,32,Wunderground v.1.15,2013-03-01 18:08:00,
2013-03-01 10:09:00,52.3,49.5,30.32,ESE,115,3.0,-999.0,90,0.00,,,0.00,32,Wunderground v.1.15,2013-03-01 18:09:00,
2013-03-01 10:10:00,52.3,49.5,30.32,SSE,148,0.0,-999.0,90,0.00,,,0.00,32,Wunderground v.1.15,2013-03-01 18:10:00,
2013-03-01 10:13:00,52.3,49.5,30.32,SSE,149,1.0,-999.0,90,0.00,,,0.00,42,Wunderground v.1.15,2013-03-01 18:13:00,
2013-03-01 10:14:00,52.3,49.5,30.32,SSE,152,2.0,-999.0,90,0.00,,,0.00,42,Wunderground v.1.15,2013-03-01 18:14:00,
2013-03-01 10:15:00,52.3,49.5,30.32,East,101,2.0,-999.0,90,0.00,,,0.00,42,Wunderground v.1.15,2013-03-01 18:15:00,
2013-03-01 10:18:00,52.3,49.5,30.33,SE,142,3.0,-999.0,90,0.00,,,0.00,33,Wunderground v.1.15,2013-03-01 18:18:00,
2013-03-01 10:19:00,52.3,49.5,30.33,SE,142,1.0,-999.0,90,0.00,,,0.00,33,Wunderground v.1.15,2013-03-01 18:19:00,
2013-03-01 10:20:00,52.3,49.5,30.33,SE,141,0.0,-999.0,90,0.00,,,0.00,33,Wunderground v.1.15,2013-03-01 18:20:00,
2013-03-01 10:23:00,52.3,49.5,30.33,SE,129,1.0,-999.0,90,0.00,,,0.00,21,Wunderground v.1.15,2013-03-01 18:23:00,
2013-03-01 10:24:00,52.3,49.8,30.33,SE,129,0.0,-999.0,91,0.00,,,0.00,21,Wunderground v.1.15,2013-03-01 18:24:00,
2013-03-01 10:25:00,52.3,49.8,30.33,SE,128,0.0,-999.0,91,0.00,,,0.00,18,Wunderground v.1.15,2013-03-01 18:25:00,
2013-03-01 10:28:00,52.2,49.7,30.33,SE,128,1.0,-999.0,91,0.00,,,0.00,18,Wunderground v.1.15,2013-03-01 18:28:00,
2013-03-01 10:30:00,52.2,49.7,30.33,SSE,155,3.0,-999.0,91,0.00,,,0.00,18,Wunderground v.1.15,2013-03-01 18:30:00,
2013-03-01 10:33:00,52.2,49.7,30.34,SE,145,2.0,-999.0,91,0.00,,,0.00,28,Wunderground v.1.15,2013-03-01 18:33:00,
2013-03-01 10:35:00,52.2,49.7,30.34,SE,131,2.0,-999.0,91,0.00,,,0.00,28,Wunderground v.1.15,2013-03-01 18:35:00,
2013-03-01 10:36:00,52.2,49.7,30.34,SE,131,1.0,-999.0,91,0.00,,,0.00,28,Wunderground v.1.15,2013-03-01 18:36:00,
2013-03-01 10:38:00,52.2,49.7,30.34,ESE,104,2.0,-999.0,91,0.00,,,0.00,32,Wunderground v.1.15,2013-03-01 18:38:00,
2013-03-01 10:40:00,52.2,49.7,30.34,SE,126,6.0,-999.0,91,0.00,,,0.00,32,Wunderground v.1.15,2013-03-01 18:40:00,
2013-03-01 10:41:00,52.2,49.7,30.34,South,180,0.0,-999.0,91,0.00,,,0.00,32,Wunderground v.1.15,2013-03-01 18:41:00,
2013-03-01 10:44:00,52.2,49.7,30.34,SE,136,0.0,-999.0,91,0.00,,,0.00,28,Wunderground v.1.15,2013-03-01 18:44:00,
2013-03-01 10:45:00,52.2,49.7,30.34,SE,136,2.0,-999.0,91,0.00,,,0.00,28,Wunderground v.1.15,2013-03-01 18:45:00,
2013-03-01 10:46:00,52.2,49.7,30.32,SE,136,0.0,-999.0,91,0.00,,,0.00,32,Wunderground v.1.15,2013-03-01 18:46:00,
2013-03-01 10:50:00,52.3,49.8,30.32,East,94,0.0,-999.0,91,0.00,,,0.00,49,Wunderground v.1.15,2013-03-01 18:50:00,
2013-03-01 10:51:00,52.3,49.8,30.32,SE,133,2.0,-999.0,91,0.00,,,0.00,49,Wunderground v.1.15,2013-03-01 18:51:00,
2013-03-01 10:55:00,52.3,49.8,30.32,SE,133,0.0,-999.0,91,0.00,,,0.00,40,Wunderground v.1.15,2013-03-01 18:55:00,
2013-03-01 10:56:00,52.3,49.8,30.32,South,169,1.0,-999.0,91,0.00,,,0.00,53,Wunderground v.1.15,2013-03-01 18:56:00,
2013-03-01 10:57:00,52.3,49.8,30.32,East,98,3.0,-999.0,91,0.00,,,0.00,56,Wunderground v.1.15,2013-03-01 18:57:00,
2013-03-01 11:00:00,52.5,49.9,30.32,SE,124,3.0,-999.0,91,0.00,,,0.00,58,Wunderground v.1.15,2013-03-01 19:00:00,
2013-03-01 11:01:00,52.5,49.9,30.32,SSE,150,0.0,-999.0,91,0.00,,,0.00,51,Wunderground v.1.15,2013-03-01 19:01:00,
2013-03-01 11:02:00,52.5,49.9,30.32,South,179,1.0,-999.0,91,0.00,,,0.00,55,Wunderground v.1.15,2013-03-01 19:02:00,
2013-03-01 11:05:00,52.5,49.9,30.32,SE,128,1.0,-999.0,91,0.00,,,0.00,55,Wunderground v.1.15,2013-03-01 19:05:00,
2013-03-01 11:06:00,52.5,49.9,30.32,SSE,150,3.0,-999.0,91,0.00,,,0.00,60,Wunderground v.1.15,2013-03-01 19:06:00,
2013-03-01 11:07:00,52.5,49.9,30.32,South,169,0.0,-999.0,91,0.00,,,0.00,72,Wunderground v.1.15,2013-03-01 19:07:00,
2013-03-01 11:10:00,52.6,50.0,30.32,ESE,104,1.0,-999.0,91,0.00,,,0.00,53,Wunderground v.1.15,2013-03-01 19:10:00,
2013-03-01 11:11:00,52.6,50.0,30.32,ESE,119,4.0,-999.0,91,0.00,,,0.00,53,Wunderground v.1.15,2013-03-01 19:11:00,
2013-03-01 11:13:00,52.6,50.0,30.32,SE,143,3.0,-999.0,91,0.00,,,0.00,51,Wunderground v.1.15,2013-03-01 19:13:00,
2013-03-01 11:16:00,52.6,50.0,30.32,South,174,0.0,-999.0,91,0.00,,,0.00,62,Wunderground v.1.15,2013-03-01 19:16:00,
2013-03-01 11:17:00,52.6,49.8,30.32,South,173,0.0,-999.0,90,0.00,,,0.00,60,Wunderground v.1.15,2013-03-01 19:17:00,
2013-03-01 11:18:00,52.8,50.2,30.32,SE,132,2.0,-999.0,91,0.00,,,0.00,40,Wunderground v.1.15,2013-03-01 19:18:00,
2013-03-01 11:21:00,52.8,49.9,30.32,SE,125,7.0,-999.0,90,0.00,,,0.00,37,Wunderground v.1.15,2013-03-01 19:21:00,
2013-03-01 11:22:00,52.8,49.9,30.32,SE,139,2.0,-999.0,90,0.00,,,0.00,37,Wunderground v.1.15,2013-03-01 19:22:00,
2013-03-01 11:23:00,52.8,49.9,30.32,SSE,148,0.0,-999.0,90,0.00,,,0.00,40,Wunderground v.1.15,2013-03-01 19:23:00,
2013-03-01 11:26:00,52.8,49.9,30.32,SSE,148,0.0,-999.0,90,0.00,,,0.00,42,Wunderground v.1.15,2013-03-01 19:26:00,
2013-03-01 11:27:00,52.8,49.9,30.32,SE,145,1.0,-999.0,90,0.00,,,0.00,44,Wunderground v.1.15,2013-03-01 19:27:00,
2013-03-01 11:28:00,52.8,49.9,30.32,SE,145,1.0,-999.0,90,0.00,,,0.00,44,Wunderground v.1.15,2013-03-01 19:28:00,
2013-03-01 11:31:00,52.8,49.6,30.32,SSE,149,2.0,-999.0,89,0.00,,,0.00,33,Wunderground v.1.15,2013-03-01 19:31:00,
2013-03-01 11:33:00,52.8,49.6,30.32,SE,138,1.0,-999.0,89,0.00,,,0.00,33,Wunderground v.1.15,2013-03-01 19:33:00,
2013-03-01 11:34:00,52.9,49.7,30.32,SE,146,2.0,-999.0,89,0.00,,,0.00,33,Wunderground v.1.15,2013-03-01 19:34:00,
2013-03-01 11:36:00,52.9,49.7,30.32,SE,133,0.0,-999.0,89,0.00,,,0.00,33,Wunderground v.1.15,2013-03-01 19:36:00,
2013-03-01 11:38:00,52.9,49.7,30.32,SE,139,4.0,-999.0,89,0.00,,,0.00,35,Wunderground v.1.15,2013-03-01 19:38:00,
2013-03-01 11:39:00,52.9,49.7,30.32,West,261,2.0,-999.0,89,0.00,,,0.00,35,Wunderground v.1.15,2013-03-01 19:39:00,
2013-03-01 11:41:00,52.9,49.7,30.32,East,101,1.0,-999.0,89,0.00,,,0.00,39,Wunderground v.1.15,2013-03-01 19:41:00,
2013-03-01 11:43:00,52.9,49.7,30.32,East,101,0.0,-999.0,89,0.00,,,0.00,39,Wunderground v.1.15,2013-03-01 19:43:00,
2013-03-01 11:45:00,52.9,50.0,30.32,East,101,0.0,-999.0,90,0.00,,,0.00,39,Wunderground v.1.15,2013-03-01 19:45:00,
2013-03-01 11:46:00,52.9,50.0,30.32,East,101,1.0,-999.0,90,0.00,,,0.00,37,Wunderground v.1.15,2013-03-01 19:46:00,
2013-03-01 11:48:00,52.9,50.0,30.32,SSE,155,0.0,-999.0,90,0.00,,,0.00,37,Wunderground v.1.15,2013-03-01 19:48:00,
2013-03-01 11:51:00,53.1,50.2,30.32,ESE,122,2.0,-999.0,90,0.00,,,0.00,91,Wunderground v.1.15,2013-03-01 19:51:00,
2013-03-01 11:53:00,53.1,50.2,30.32,East,83,4.0,-999.0,90,0.00,,,0.00,97,Wunderground v.1.15,2013-03-01 19:53:00,
2013-03-01 11:56:00,53.2,50.3,30.32,NE,50,2.0,-999.0,90,0.00,,,0.00,107,Wunderground v.1.15,2013-03-01 19:56:00,
2013-03-01 11:59:00,53.4,50.2,30.32,SE,135,0.0,-999.0,89,0.00,,,0.00,79,Wunderground v.1.15,2013-03-01 19:59:00,
2013-03-01 12:01:00,53.4,50.2,30.32,SE,125,0.0,-999.0,89,0.00,,,0.00,74,Wunderground v.1.15,2013-03-01 20:01:00,
2013-03-01 12:02:00,53.4,50.2,30.32,SE,125,0.0,-999.0,89,0.00,,,0.00,74,Wunderground v.1.15,2013-03-01 20:02:00,
2013-03-01 12:04:00,53.5,50.3,30.32,SSE,155,1.0,-999.0,89,0.00,,,0.00,60,Wunderground v.1.15,2013-03-01 20:04:00,
2013-03-01 12:05:00,53.5,50.3,30.32,SE,146,1.0,-999.0,89,0.00,,,0.00,55,Wunderground v.1.15,2013-03-01 20:05:00,
2013-03-01 12:06:00,53.5,50.3,30.32,ESE,107,0.0,-999.0,89,0.00,,,0.00,65,Wunderground v.1.15,2013-03-01 20:06:00,
2013-03-01 12:07:00,53.5,50.3,30.32,SE,138,1.0,-999.0,89,0.00,,,0.00,65,Wunderground v.1.15,2013-03-01 20:07:00,
2013-03-01 12:10:00,53.5,50.3,30.32,SE,128,17.0,-999.0,89,0.00,,,0.00,102,Wunderground v.1.15,2013-03-01 20:10:00,
2013-03-01 12:11:00,53.5,50.0,30.32,ESE,119,0.0,-999.0,88,0.00,,,0.00,114,Wunderground v.1.15,2013-03-01 20:11:00,
2013-03-01 12:12:00,53.7,50.2,30.32,ESE,119,0.0,-999.0,88,0.00,,,0.00,114,Wunderground v.1.15,2013-03-01 20:12:00,
2013-03-01 12:15:00,53.7,50.5,30.32,SSE,149,1.0,-999.0,89,0.00,,,0.00,109,Wunderground v.1.15,2013-03-01 20:15:00,
2013-03-01 12:16:00,53.7,50.5,30.31,SE,142,3.0,-999.0,89,0.00,,,0.00,120,Wunderground v.1.15,2013-03-01 20:16:00,
2013-03-01 12:17:00,53.8,50.6,30.31,SE,133,2.0,-999.0,89,0.00,,,0.00,88,Wunderground v.1.15,2013-03-01 20:17:00,
2013-03-01 12:20:00,53.8,50.6,30.31,ESE,122,2.0,-999.0,89,0.00,,,0.00,106,Wunderground v.1.15,2013-03-01 20:20:00,
2013-03-01 12:21:00,53.8,50.6,30.31,SSE,153,2.0,-999.0,89,0.00,,,0.00,109,Wunderground v.1.15,2013-03-01 20:21:00,
2013-03-01 12:22:00,53.8,50.3,30.31,SSE,148,3.0,-999.0,88,0.00,,,0.00,113,Wunderground v.1.15,2013-03-01 20:22:00,
2013-03-01 12:23:00,53.9,50.4,30.31,ESE,105,4.0,-999.0,88,0.00,,,0.00,99,Wunderground v.1.15,2013-03-01 20:23:00,
2013-03-01 12:25:00,53.9,50.4,30.31,SSE,150,0.0,-999.0,88,0.00,,,0.00,102,Wunderground v.1.15,2013-03-01 20:25:00,
2013-03-01 12:26:00,53.9,50.4,30.31,SE,138,1.0,-999.0,88,0.00,,,0.00,102,Wunderground v.1.15,2013-03-01 20:26:00,
2013-03-01 12:27:00,53.9,50.4,30.31,SSE,148,1.0,-999.0,88,0.00,,,0.00,102,Wunderground v.1.15,2013-03-01 20:27:00,
2013-03-01 12:29:00,54.1,50.6,30.31,SSE,150,0.0,-999.0,88,0.00,,,0.00,113,Wunderground v.1.15,2013-03-01 20:29:00,
2013-03-01 12:30:00,54.1,50.6,30.31,SSE,150,0.0,-999.0,88,0.00,,,0.00,93,Wunderground v.1.15,2013-03-01 20:30:00,
2013-03-01 12:31:00,54.1,50.6,30.31,SSE,152,1.0,-999.0,88,0.00,,,0.00,93,Wunderground v.1.15,2013-03-01 20:31:00,
2013-03-01 12:32:00,54.1,50.6,30.31,ESE,122,5.0,-999.0,88,0.00,,,0.00,102,Wunderground v.1.15,2013-03-01 20:32:00,
2013-03-01 12:35:00,54.2,50.7,30.31,SSE,160,4.0,-999.0,88,0.00,,,0.00,114,Wunderground v.1.15,2013-03-01 20:35:00,
2013-03-01 12:36:00,54.2,50.7,30.31,SSE,153,1.0,-999.0,88,0.00,,,0.00,114,Wunderground v.1.15,2013-03-01 20:36:00,
2013-03-01 12:37:00,54.2,50.4,30.31,SSE,156,1.0,-999.0,87,0.00,,,0.00,107,Wunderground v.1.15,2013-03-01 20:37:00,
2013-03-01 12:41:00,54.4,50.9,30.31,SE,126,6.0,-999.0,88,0.00,,,0.00,106,Wunderground v.1.15,2013-03-01 20:41:00,
2013-03-01 12:42:00,54.4,50.6,30.31,SSE,153,2.0,-999.0,87,0.00,,,0.00,91,Wunderground v.1.15,2013-03-01 20:42:00,
2013-03-01 12:46:00,54.4,50.6,30.30,ESE,111,1.0,-999.0,87,0.00,,,0.00,134,Wunderground v.1.15,2013-03-01 20:46:00,
2013-03-01 12:47:00,54.4,50.6,30.30,SSE,152,5.0,-999.0,87,0.00,,,0.00,116,Wunderground v.1.15,2013-03-01 20:47:00,
2013-03-01 12:51:00,54.5,51.0,30.30,SE,143,2.0,-999.0,88,0.00,,,0.00,118,Wunderground v.1.15,2013-03-01 20:51:00,
2013-03-01 12:52:00,54.5,51.0,30.30,SSE,157,0.0,-999.0,88,0.00,,,0.00,118,Wunderground v.1.15,2013-03-01 20:52:00,
2013-03-01 12:56:00,54.7,50.9,30.30,SE,141,6.0,-999.0,87,0.00,,,0.00,146,Wunderground v.1.15,2013-03-01 20:56:00,
2013-03-01 12:57:00,54.7,50.9,30.30,SE,141,2.0,-999.0,87,0.00,,,0.00,146,Wunderground v.1.15,2013-03-01 20:57:00,
2013-03-01 13:01:00,54.8,50.7,30.29,ENE,71,1.0,-999.0,86,0.00,,,0.00,137,Wunderground v.1.15,2013-03-01 21:01:00,
2013-03-01 13:02:00,55.0,51.2,30.29,ESE,105,7.0,-999.0,87,0.00,,,0.00,160,Wunderground v.1.15,2013-03-01 21:02:00,
2013-03-01 13:03:00,55.0,50.9,30.29,SSE,165,3.0,-999.0,86,0.00,,,0.00,158,Wunderground v.1.15,2013-03-01 21:03:00,
2013-03-01 13:07:00,55.1,51.0,30.29,SE,126,1.0,-999.0,86,0.00,,,0.00,143,Wunderground v.1.15,2013-03-01 21:07:00,
2013-03-01 13:08:00,55.1,51.0,30.29,South,187,2.0,-999.0,86,0.00,,,0.00,127,Wunderground v.1.15,2013-03-01 21:08:00,
2013-03-01 13:12:00,55.1,50.7,30.29,SSE,156,3.0,-999.0,85,0.00,,,0.00,162,Wunderground v.1.15,2013-03-01 21:12:00,
2013-03-01 13:13:00,55.1,50.7,30.29,SSE,153,3.0,-999.0,85,0.00,,,0.00,165,Wunderground v.1.15,2013-03-01 21:13:00,
2013-03-01 13:15:00,55.1,50.7,30.29,SE,131,2.0,-999.0,85,0.00,,,0.00,153,Wunderground v.1.15,2013-03-01 21:15:00,
2013-03-01 13:17:00,55.3,50.9,30.29,SE,131,0.0,-999.0,85,0.00,,,0.00,176,Wunderground v.1.15,2013-03-01 21:17:00,
2013-03-01 13:18:00,55.3,50.9,30.29,SE,131,0.0,-999.0,85,0.00,,,0.00,176,Wunderground v.1.15,2013-03-01 21:18:00,
2013-03-01 13:21:00,55.4,51.3,30.29,ESE,117,2.0,-999.0,86,0.00,,,0.00,158,Wunderground v.1.15,2013-03-01 21:21:00,
2013-03-01 13:22:00,55.4,51.3,30.29,SSE,150,6.0,-999.0,86,0.00,,,0.00,128,Wunderground v.1.15,2013-03-01 21:22:00,
2013-03-01 13:23:00,55.4,51.3,30.29,SE,138,2.0,-999.0,86,0.00,,,0.00,128,Wunderground v.1.15,2013-03-01 21:23:00,
2013-03-01 13:26:00,55.4,51.0,30.29,ENE,76,1.0,-999.0,85,0.00,,,0.00,125,Wunderground v.1.15,2013-03-01 21:26:00,
2013-03-01 13:27:00,55.4,51.0,30.29,West,268,1.0,-999.0,85,0.00,,,0.00,118,Wunderground v.1.15,2013-03-01 21:27:00,
2013-03-01 13:28:00,55.4,50.6,30.29,SSE,155,2.0,-999.0,84,0.00,,,0.00,114,Wunderground v.1.15,2013-03-01 21:28:00,
2013-03-01 13:31:00,55.4,50.6,30.29,ESE,119,1.0,-999.0,84,0.00,,,0.00,111,Wunderground v.1.15,2013-03-01 21:31:00,
2013-03-01 13:33:00,55.4,50.6,30.29,South,190,0.0,-999.0,84,0.00,,,0.00,83,Wunderground v.1.15,2013-03-01 21:33:00,
2013-03-01 13:37:00,55.4,50.6,30.29,SSE,149,2.0,-999.0,84,0.00,,,0.00,84,Wunderground v.1.15,2013-03-01 21:37:00,
2013-03-01 13:38:00,55.4,50.6,30.29,SSE,155,0.0,-999.0,84,0.00,,,0.00,63,Wunderground v.1.15,2013-03-01 21:38:00,
2013-03-01 13:39:00,55.4,50.6,30.29,ESE,114,7.0,-999.0,84,0.00,,,0.00,79,Wunderground v.1.15,2013-03-01 21:39:00,
2013-03-01 13:42:00,55.3,50.2,30.29,SSE,150,3.0,-999.0,83,0.00,,,0.00,86,Wunderground v.1.15,2013-03-01 21:42:00,
2013-03-01 13:43:00,55.3,50.2,30.29,SSE,155,2.0,-999.0,83,0.00,,,0.00,79,Wunderground v.1.15,2013-03-01 21:43:00,
2013-03-01 13:44:00,55.3,50.2,30.29,East,100,2.0,-999.0,83,0.00,,,0.00,79,Wunderground v.1.15,2013-03-01 21:44:00,
2013-03-01 13:47:00,55.1,50.4,30.28,SW,232,1.0,-999.0,84,0.00,,,0.00,72,Wunderground v.1.15,2013-03-01 21:47:00,
2013-03-01 13:49:00,55.1,50.0,30.28,SE,145,2.0,-999.0,83,0.00,,,0.00,84,Wunderground v.1.15,2013-03-01 21:49:00,
2013-03-01 13:52:00,55.1,50.0,30.28,NW,314,0.0,-999.0,83,0.00,,,0.00,77,Wunderground v.1.15,2013-03-01 21:52:00,
2013-03-01 13:54:00,55.1,50.4,30.28,SSE,150,1.0,-999.0,84,0.00,,,0.00,74,Wunderground v.1.15,2013-03-01 21:54:00,
2013-03-01 13:55:00,55.1,50.4,30.28,East,88,6.0,-999.0,84,0.00,,,0.00,70,Wunderground v.1.15,2013-03-01 21:55:00,
2013-03-01 13:57:00,55.1,50.4,30.28,South,176,1.0,-999.0,84,0.00,,,0.00,67,Wunderground v.1.15,2013-03-01 21:57:00,
2013-03-01 13:59:00,55.1,50.4,30.28,SE,141,16.0,-999.0,84,0.00,,,0.00,74,Wunderground v.1.15,2013-03-01 21:59:00,
2013-03-01 14:00:00,55.1,50.4,30.28,SSE,166,2.0,-999.0,84,0.00,,,0.00,77,Wunderground v.1.15,2013-03-01 22:00:00,
2013-03-01 14:01:00,55.1,50.4,30.28,NW,313,1.0,-999.0,84,0.00,,,0.00,79,Wunderground v.1.15,2013-03-01 22:01:00,
2013-03-01 14:02:00,55.0,49.9,30.28,South,169,6.0,-999.0,83,0.00,,,0.00,79,Wunderground v.1.15,2013-03-01 22:02:00,
2013-03-01 14:04:00,55.0,49.9,30.28,SE,136,6.0,-999.0,83,0.00,,,0.00,72,Wunderground v.1.15,2013-03-01 22:04:00,
2013-03-01 14:05:00,55.0,50.3,30.28,SSE,166,1.0,-999.0,84,0.00,,,0.00,84,Wunderground v.1.15,2013-03-01 22:05:00,
2013-03-01 14:06:00,55.0,50.3,30.28,SSE,166,0.0,-999.0,84,0.00,,,0.00,67,Wunderground v.1.15,2013-03-01 22:06:00,
2013-03-01 14:08:00,55.0,50.3,30.28,ESE,122,3.0,-999.0,84,0.00,,,0.00,86,Wunderground v.1.15,2013-03-01 22:08:00,
2013-03-01 14:10:00,55.0,50.3,30.28,East,101,3.0,-999.0,84,0.00,,,0.00,88,Wunderground v.1.15,2013-03-01 22:10:00,
2013-03-01 14:11:00,55.0,50.3,30.28,SE,125,2.0,-999.0,84,0.00,,,0.00,99,Wunderground v.1.15,2013-03-01 22:11:00,
2013-03-01 14:13:00,55.0,50.3,30.28,SE,142,2.0,-999.0,84,0.00,,,0.00,90,Wunderground v.1.15,2013-03-01 22:13:00,
2013-03-01 14:15:00,55.0,49.9,30.28,SSW,197,2.0,-999.0,83,0.00,,,0.00,102,Wunderground v.1.15,2013-03-01 22:15:00,
2013-03-01 14:16:00,55.0,49.9,30.27,SE,136,1.0,-999.0,83,0.00,,,0.00,106,Wunderground v.1.15,2013-03-01 22:16:00,
2013-03-01 14:19:00,55.1,50.4,30.27,SSE,149,3.0,-999.0,84,0.00,,,0.00,95,Wunderground v.1.15,2013-03-01 22:19:00,
2013-03-01 14:20:00,55.1,50.4,30.27,SSE,157,2.0,-999.0,84,0.00,,,0.00,95,Wunderground v.1.15,2013-03-01 22:20:00,
2013-03-01 14:21:00,55.1,50.0,30.27,SSE,156,1.0,-999.0,83,0.00,,,0.00,104,Wunderground v.1.15,2013-03-01 22:21:00,
2013-03-01 14:24:00,55.1,50.0,30.27,SSE,153,0.0,-999.0,83,0.00,,,0.00,114,Wunderground v.1.15,2013-03-01 22:24:00,
2013-03-01 14:25:00,55.1,50.0,30.27,SE,141,3.0,-999.0,83,0.00,,,0.00,123,Wunderground v.1.15,2013-03-01 22:25:00,
2013-03-01 14:26:00,55.1,50.0,30.27,SE,139,3.0,-999.0,83,0.00,,,0.00,123,Wunderground v.1.15,2013-03-01 22:26:00,
2013-03-01 14:29:00,55.3,50.2,30.27,SE,143,1.0,-999.0,83,0.00,,,0.00,81,Wunderground v.1.15,2013-03-01 22:29:00,
2013-03-01 14:30:00,55.3,50.2,30.27,SSE,157,3.0,-999.0,83,0.00,,,0.00,93,Wunderground v.1.15,2013-03-01 22:30:00,
2013-03-01 14:31:00,55.3,50.2,30.27,South,186,8.0,-999.0,83,0.00,,,0.00,93,Wunderground v.1.15,2013-03-01 22:31:00,
2013-03-01 14:34:00,55.3,49.9,30.27,SE,141,0.0,-999.0,82,0.00,,,0.00,77,Wunderground v.1.15,2013-03-01 22:34:00,
2013-03-01 14:35:00,55.3,50.2,30.27,SE,139,1.0,-999.0,83,0.00,,,0.00,81,Wunderground v.1.15,2013-03-01 22:35:00,
2013-03-01 14:36:00,55.3,50.2,30.27,SE,139,1.0,-999.0,83,0.00,,,0.00,81,Wunderground v.1.15,2013-03-01 22:36:00,
2013-03-01 14:37:00,55.3,50.2,30.27,SSE,159,0.0,-999.0,83,0.00,,,0.00,83,Wunderground v.1.15,2013-03-01 22:37:00,
2013-03-01 14:39:00,55.3,50.2,30.27,SE,131,1.0,-999.0,83,0.00,,,0.00,83,Wunderground v.1.15,2013-03-01 22:39:00,
2013-03-01 14:40:00,55.3,50.2,30.27,SE,139,0.0,-999.0,83,0.00,,,0.00,65,Wunderground v.1.15,2013-03-01 22:40:00,
2013-03-01 14:41:00,55.3,50.2,30.27,SE,139,0.0,-999.0,83,0.00,,,0.00,65,Wunderground v.1.15,2013-03-01 22:41:00,
2013-03-01 14:42:00,55.3,50.2,30.27,SW,215,2.0,-999.0,83,0.00,,,0.00,84,Wunderground v.1.15,2013-03-01 22:42:00,
2013-03-01 14:44:00,55.3,49.9,30.27,WNW,282,2.0,-999.0,82,0.00,,,0.00,70,Wunderground v.1.15,2013-03-01 22:44:00,
2013-03-01 14:46:00,55.3,50.2,30.28,SSE,155,5.0,-999.0,83,0.00,,,0.00,77,Wunderground v.1.15,2013-03-01 22:46:00,
2013-03-01 14:47:00,55.3,49.9,30.28,SE,131,2.0,-999.0,82,0.00,,,0.00,67,Wunderground v.1.15,2013-03-01 22:47:00,
2013-03-01 14:49:00,55.3,50.2,30.28,West,279,1.0,-999.0,83,0.00,,,0.00,81,Wunderground v.1.15,2013-03-01 22:49:00,
2013-03-01 14:51:00,55.3,50.2,30.28,SSE,150,3.0,-999.0,83,0.00,,,0.00,70,Wunderground v.1.15,2013-03-01 22:51:00,
2013-03-01 14:52:00,55.3,50.2,30.28,SE,141,0.0,-999.0,83,0.00,,,0.00,65,Wunderground v.1.15,2013-03-01 22:52:00,
2013-03-01 14:54:00,55.3,50.2,30.28,SE,132,2.0,-999.0,83,0.00,,,0.00,67,Wunderground v.1.15,2013-03-01 22:54:00,
2013-03-01 14:56:00,55.3,50.2,30.28,ESE,115,3.0,-999.0,83,0.00,,,0.00,74,Wunderground v.1.15,2013-03-01 22:56:00,
2013-03-01 14:57:00,55.3,50.2,30.28,NE,42,1.0,-999.0,83,0.00,,,0.00,65,Wunderground v.1.15,2013-03-01 22:57:00,
2013-03-01 15:00:00,55.3,50.2,30.28,ESE,114,2.0,-999.0,83,0.00,,,0.00,69,Wunderground v.1.15,2013-03-01 23:00:00,
2013-03-01 15:01:00,55.3,49.9,30.28,SE,133,2.0,-999.0,82,0.00,,,0.00,60,Wunderground v.1.15,2013-03-01 23:01:00,
2013-03-01 15:03:00,55.3,50.2,30.28,ESE,112,1.0,-999.0,83,0.00,,,0.00,62,Wunderground v.1.15,2013-03-01 23:03:00,
2013-03-01 15:05:00,55.3,50.2,30.28,WSW,238,5.0,-999.0,83,0.00,,,0.00,69,Wunderground v.1.15,2013-03-01 23:05:00,
2013-03-01 15:06:00,55.3,50.2,30.28,SSE,167,1.0,-999.0,83,0.00,,,0.00,62,Wunderground v.1.15,2013-03-01 23:06:00,
2013-03-01 15:08:00,55.3,50.2,30.28,SSW,193,2.0,-999.0,83,0.00,,,0.00,65,Wunderground v.1.15,2013-03-01 23:08:00,
2013-03-01 15:10:00,55.3,49.9,30.28,SSE,153,1.0,-999.0,82,0.00,,,0.00,88,Wunderground v.1.15,2013-03-01 23:10:00,
2013-03-01 15:11:00,55.4,50.0,30.28,SE,129,3.0,-999.0,82,0.00,,,0.00,79,Wunderground v.1.15,2013-03-01 23:11:00,
2013-03-01 15:14:00,55.4,50.3,30.28,South,174,2.0,-999.0,83,0.00,,,0.00,81,Wunderground v.1.15,2013-03-01 23:14:00,
2013-03-01 15:15:00,55.4,50.0,30.28,East,97,3.0,-999.0,82,0.00,,,0.00,77,Wunderground v.1.15,2013-03-01 23:15:00,
2013-03-01 15:16:00,55.4,50.0,30.28,SE,139,4.0,-999.0,82,0.00,,,0.00,83,Wunderground v.1.15,2013-03-01 23:16:00,
2013-03-01 15:19:00,55.4,50.0,30.28,SE,135,3.0,-999.0,82,0.00,,,0.00,69,Wunderground v.1.15,2013-03-01 23:19:00,
2013-03-01 15:20:00,55.4,50.3,30.28,ESE,119,5.0,-999.0,83,0.00,,,0.00,55,Wunderground v.1.15,2013-03-01 23:20:00,
2013-03-01 15:21:00,55.4,50.0,30.28,SE,133,0.0,-999.0,82,0.00,,,0.00,58,Wunderground v.1.15,2013-03-01 23:21:00,
2013-03-01 15:24:00,55.4,50.0,30.28,SE,136,3.0,-999.0,82,0.00,,,0.00,74,Wunderground v.1.15,2013-03-01 23:24:00,
2013-03-01 15:26:00,55.4,50.0,30.28,SSE,157,3.0,-999.0,82,0.00,,,0.00,74,Wunderground v.1.15,2013-03-01 23:26:00,
2013-03-01 15:29:00,55.4,49.7,30.28,SE,133,1.0,-999.0,81,0.00,,,0.00,56,Wunderground v.1.15,2013-03-01 23:29:00,
2013-03-01 15:31:00,55.6,50.2,30.28,SE,131,2.0,-999.0,82,0.00,,,0.00,56,Wunderground v.1.15,2013-03-01 23:31:00,
2013-03-01 15:32:00,55.6,50.2,30.28,ESE,118,1.0,-999.0,82,0.00,,,0.00,56,Wunderground v.1.15,2013-03-01 23:32:00,
2013-03-01 15:34:00,55.6,50.2,30.28,SE,139,3.0,-999.0,82,0.00,,,0.00,58,Wunderground v.1.15,2013-03-01 23:34:00,
2013-03-01 15:37:00,55.6,50.2,30.28,SE,136,3.0,-999.0,82,0.00,,,0.00,58,Wunderground v.1.15,2013-03-01 23:37:00,
2013-03-01 15:38:00,55.6,49.9,30.28,South,174,2.0,-999.0,81,0.00,,,0.00,49,Wunderground v.1.15,2013-03-01 23:38:00,
2013-03-01 15:39:00,55.6,49.9,30.28,SE,145,2.0,-999.0,81,0.00,,,0.00,49,Wunderground v.1.15,2013-03-01 23:39:00,
2013-03-01 15:42:00,55.6,49.9,30.28,SW,229,0.0,-999.0,81,0.00,,,0.00,46,Wunderground v.1.15,2013-03-01 23:42:00,
2013-03-01 15:43:00,55.6,50.2,30.28,ESE,104,1.0,-999.0,82,0.00,,,0.00,48,Wunderground v.1.15,2013-03-01 23:43:00,
2013-03-01 15:45:00,55.6,50.2,30.28,SSE,152,0.0,-999.0,82,0.00,,,0.00,48,Wunderground v.1.15,2013-03-01 23:45:00,
2013-03-01 15:47:00,55.6,50.2,30.28,SE,124,0.0,-999.0,82,0.00,,,0.00,48,Wunderground v.1.15,2013-03-01 23:47:00,
2013-03-01 15:48:00,55.6,50.2,30.28,SE,124,0.0,-999.0,82,0.00,,,0.00,46,Wunderground v.1.15,2013-03-01 23:48:00,
2013-03-01 15:51:00,55.6,50.2,30.28,ESE,104,1.0,-999.0,82,0.00,,,0.00,53,Wunderground v.1.15,2013-03-01 23:51:00,
2013-03-01 15:52:00,55.6,50.2,30.28,SE,129,1.0,-999.0,82,0.00,,,0.00,53,Wunderground v.1.15,2013-03-01 23:52:00,
2013-03-01 15:53:00,55.6,50.2,30.28,SSE,156,2.0,-999.0,82,0.00,,,0.00,42,Wunderground v.1.15,2013-03-01 23:53:00,
2013-03-01 15:57:00,55.4,50.0,30.28,ESE,107,1.0,-999.0,82,0.00,,,0.00,42,Wunderground v.1.15,2013-03-01 23:57:00,
2013-03-01 15:58:00,55.4,50.0,30.28,ESE,108,0.0,-999.0,82,0.00,,,0.00,26,Wunderground v.1.15,2013-03-01 23:58:00,
2013-03-01 15:59:00,55.4,50.0,30.28,ENE,69,1.0,-999.0,82,0.00,,,0.00,26,Wunderground v.1.15,2013-03-01 23:59:00,
2013-03-01 16:02:00,55.3,50.2,30.28,East,88,1.0,-999.0,83,0.00,,,0.00,26,Wunderground v.1.15,2013-03-02 00:02:00,
2013-03-01 16:03:00,55.3,50.2,30.28,NE,54,5.0,-999.0,83,0.00,,,0.00,26,Wunderground v.1.15,2013-03-02 00:03:00,
2013-03-01 16:04:00,55.3,50.2,30.28,East,93,1.0,-999.0,83,0.00,,,0.00,26,Wunderground v.1.15,2013-03-02 00:04:00,
2013-03-01 16:08:00,55.3,50.2,30.28,East,95,7.0,-999.0,83,0.00,,,0.00,18,Wunderground v.1.15,2013-03-02 00:08:00,
2013-03-01 16:11:00,55.1,50.0,30.28,SSE,148,1.0,-999.0,83,0.00,,,0.00,12,Wunderground v.1.15,2013-03-02 00:11:00,
2013-03-01 16:13:00,55.1,50.0,30.28,SE,138,3.0,-999.0,83,0.00,,,0.00,12,Wunderground v.1.15,2013-03-02 00:13:00,
2013-03-01 16:16:00,55.1,50.0,30.27,South,186,0.0,-999.0,83,0.00,,,0.00,19,Wunderground v.1.15,2013-03-02 00:16:00,
2013-03-01 16:18:00,55.1,50.0,30.27,ESE,112,2.0,-999.0,83,0.00,,,0.00,19,Wunderground v.1.15,2013-03-02 00:18:00,
2013-03-01 16:19:00,55.1,50.0,30.27,NNE,26,0.0,-999.0,83,0.00,,,0.00,19,Wunderground v.1.15,2013-03-02 00:19:00,
2013-03-01 16:21:00,55.0,49.9,30.27,SE,136,1.0,-999.0,83,0.00,,,0.00,19,Wunderground v.1.15,2013-03-02 00:21:00,
2013-03-01 16:23:00,55.0,50.3,30.27,SE,129,0.0,-999.0,84,0.00,,,0.00,16,Wunderground v.1.15,2013-03-02 00:23:00,
2013-03-01 16:24:00,55.0,50.3,30.27,SE,129,1.0,-999.0,84,0.00,,,0.00,16,Wunderground v.1.15,2013-03-02 00:24:00,
2013-03-01 16:26:00,55.0,50.3,30.27,SE,129,0.0,-999.0,84,0.00,,,0.00,16,Wunderground v.1.15,2013-03-02 00:26:00,
2013-03-01 16:28:00,55.0,50.3,30.27,SE,141,0.0,-999.0,84,0.00,,,0.00,12,Wunderground v.1.15,2013-03-02 00:28:00,
2013-03-01 16:29:00,55.0,50.3,30.27,SE,141,1.0,-999.0,84,0.00,,,0.00,12,Wunderground v.1.15,2013-03-02 00:29:00,
2013-03-01 16:31:00,54.8,50.1,30.27,West,265,0.0,-999.0,84,0.00,,,0.00,14,Wunderground v.1.15,2013-03-02 00:31:00,
2013-03-01 16:33:00,54.8,50.1,30.27,ENE,74,0.0,-999.0,84,0.00,,,0.00,14,Wunderground v.1.15,2013-03-02 00:33:00,
2013-03-01 16:34:00,54.8,50.1,30.27,ENE,74,1.0,-999.0,84,0.00,,,0.00,14,Wunderground v.1.15,2013-03-02 00:34:00,
2013-03-01 16:36:00,54.8,50.1,30.27,SSE,149,3.0,-999.0,84,0.00,,,0.00,16,Wunderground v.1.15,2013-03-02 00:36:00,
2013-03-01 16:38:00,54.8,50.1,30.27,ENE,70,1.0,-999.0,84,0.00,,,0.00,16,Wunderground v.1.15,2013-03-02 00:38:00,
2013-03-01 16:39:00,54.8,50.1,30.27,ENE,70,0.0,-999.0,84,0.00,,,0.00,19,Wunderground v.1.15,2013-03-02 00:39:00,
2013-03-01 16:40:00,54.8,50.1,30.27,ENE,70,0.0,-999.0,84,0.00,,,0.00,19,Wunderground v.1.15,2013-03-02 00:40:00,
2013-03-01 16:41:00,54.8,50.1,30.27,South,191,1.0,-999.0,84,0.00,,,0.00,19,Wunderground v.1.15,2013-03-02 00:41:00,
2013-03-01 16:43:00,54.7,50.3,30.27,South,191,0.0,-999.0,85,0.00,,,0.00,21,Wunderground v.1.15,2013-03-02 00:43:00,
2013-03-01 16:44:00,54.7,50.3,30.27,ESE,117,2.0,-999.0,85,0.00,,,0.00,21,Wunderground v.1.15,2013-03-02 00:44:00,
2013-03-01 16:45:00,54.7,50.3,30.28,ESE,114,0.0,-999.0,85,0.00,,,0.00,21,Wunderground v.1.15,2013-03-02 00:45:00,
2013-03-01 16:46:00,54.7,50.3,30.28,SE,139,2.0,-999.0,85,0.00,,,0.00,21,Wunderground v.1.15,2013-03-02 00:46:00,
2013-03-01 16:49:00,54.7,50.3,30.28,NE,42,0.0,-999.0,85,0.00,,,0.00,18,Wunderground v.1.15,2013-03-02 00:49:00,
2013-03-01 16:50:00,54.7,50.3,30.28,NE,42,0.0,-999.0,85,0.00,,,0.00,18,Wunderground v.1.15,2013-03-02 00:50:00,
2013-03-01 16:51:00,54.7,50.3,30.28,NE,42,0.0,-999.0,85,0.00,,,0.00,18,Wunderground v.1.15,2013-03-02 00:51:00,
2013-03-01 16:54:00,54.5,50.1,30.28,SE,133,4.0,-999.0,85,0.00,,,0.00,18,Wunderground v.1.15,2013-03-02 00:54:00,
2013-03-01 16:55:00,54.5,49.8,30.28,East,98,6.0,-999.0,84,0.00,,,0.00,18,Wunderground v.1.15,2013-03-02 00:55:00,
2013-03-01 16:56:00,54.5,49.8,30.28,SE,145,5.0,-999.0,84,0.00,,,0.00,11,Wunderground v.1.15,2013-03-02 00:56:00,
2013-03-01 16:57:00,54.5,49.8,30.28,SE,138,7.0,-999.0,84,0.00,,,0.00,11,Wunderground v.1.15,2013-03-02 00:57:00,
2013-03-01 17:01:00,54.5,49.8,30.28,SSE,157,0.0,-999.0,84,0.00,,,0.00,11,Wunderground v.1.15,2013-03-02 01:01:00,
2013-03-01 17:02:00,54.5,49.8,30.28,SSE,157,2.0,-999.0,84,0.00,,,0.00,11,Wunderground v.1.15,2013-03-02 01:02:00,
2013-03-01 17:06:00,54.5,49.8,30.28,SE,135,1.0,-999.0,84,0.00,,,0.00,14,Wunderground v.1.15,2013-03-02 01:06:00,
2013-03-01 17:07:00,54.5,49.8,30.28,SE,135,1.0,-999.0,84,0.00,,,0.00,14,Wunderground v.1.15,2013-03-02 01:07:00,
2013-03-01 17:11:00,54.5,49.8,30.28,South,177,0.0,-999.0,84,0.00,,,0.00,11,Wunderground v.1.15,2013-03-02 01:11:00,
2013-03-01 17:12:00,54.5,49.8,30.28,SE,131,1.0,-999.0,84,0.00,,,0.00,11,Wunderground v.1.15,2013-03-02 01:12:00,
2013-03-01 17:13:00,54.5,50.1,30.28,SE,131,0.0,-999.0,85,0.00,,,0.00,9,Wunderground v.1.15,2013-03-02 01:13:00,
2013-03-01 17:16:00,54.4,50.0,30.28,SE,126,1.0,-999.0,85,0.00,,,0.00,9,Wunderground v.1.15,2013-03-02 01:16:00,
2013-03-01 17:17:00,54.4,50.0,30.28,SE,126,0.0,-999.0,85,0.00,,,0.00,9,Wunderground v.1.15,2013-03-02 01:17:00,
2013-03-01 17:18:00,54.4,50.0,30.28,SE,141,0.0,-999.0,85,0.00,,,0.00,9,Wunderground v.1.15,2013-03-02 01:18:00,
2013-03-01 17:21:00,54.4,50.0,30.28,SSE,150,3.0,-999.0,85,0.00,,,0.00,7,Wunderground v.1.15,2013-03-02 01:21:00,
2013-03-01 17:22:00,54.4,50.0,30.28,SE,141,6.0,-999.0,85,0.00,,,0.00,7,Wunderground v.1.15,2013-03-02 01:22:00,
2013-03-01 17:23:00,54.4,50.0,30.28,ESE,109,2.0,-999.0,85,0.00,,,0.00,7,Wunderground v.1.15,2013-03-02 01:23:00,
2013-03-01 17:27:00,54.4,50.0,30.28,ESE,115,1.0,-999.0,85,0.00,,,0.00,5,Wunderground v.1.15,2013-03-02 01:27:00,
2013-03-01 17:29:00,54.4,50.0,30.28,SE,138,0.0,-999.0,85,0.00,,,0.00,0,Wunderground v.1.15,2013-03-02 01:29:00,
2013-03-01 17:32:00,54.2,49.8,30.27,SE,129,1.0,-999.0,85,0.00,,,0.00,0,Wunderground v.1.15,2013-03-02 01:32:00,
2013-03-01 17:33:00,54.2,49.8,30.27,SE,129,2.0,-999.0,85,0.00,,,0.00,0,Wunderground v.1.15,2013-03-02 01:33:00,
2013-03-01 17:34:00,54.2,49.8,30.27,South,181,1.0,-999.0,85,0.00,,,0.00,0,Wunderground v.1.15,2013-03-02 01:34:00,
2013-03-01 17:37:00,54.2,50.1,30.27,SE,142,0.0,-999.0,86,0.00,,,0.00,0,Wunderground v.1.15,2013-03-02 01:37:00,
2013-03-01 17:38:00,54.1,50.0,30.27,SE,132,6.0,-999.0,86,0.00,,,0.00,0,Wunderground v.1.15,2013-03-02 01:38:00,
2013-03-01 17:40:00,54.1,49.7,30.27,ESE,115,2.0,-999.0,85,0.00,,,0.00,0,Wunderground v.1.15,2013-03-02 01:40:00,
2013-03-01 17:42:00,54.1,49.7,30.27,SE,146,2.0,-999.0,85,0.00,,,0.00,0,Wunderground v.1.15,2013-03-02 01:42:00,
2013-03-01 17:43:00,54.1,49.7,30.27,SE,132,5.0,-999.0,85,0.00,,,0.00,0,Wunderground v.1.15,2013-03-02 01:43:00,
2013-03-01 17:45:00,54.1,49.7,30.27,SE,135,3.0,-999.0,85,0.00,,,0.00,0,Wunderground v.1.15,2013-03-02 01:45:00,
2013-03-01 17:47:00,54.2,49.5,30.28,SE,138,1.0,-999.0,84,0.00,,,0.00,0,Wunderground v.1.15,2013-03-02 01:47:00,
2013-03-01 17:49:00,54.2,49.5,30.28,East,97,2.0,-999.0,84,0.00,,,0.00,0,Wunderground v.1.15,2013-03-02 01:49:00,
2013-03-01 17:50:00,54.2,49.5,30.28,SSE,155,2.0,-999.0,84,0.00,,,0.00,0,Wunderground v.1.15,2013-03-02 01:50:00,
2013-03-01 17:52:00,54.2,49.8,30.28,SSE,149,1.0,-999.0,85,0.00,,,0.00,0,Wunderground v.1.15,2013-03-02 01:52:00,
2013-03-01 17:53:00,54.1,49.7,30.28,SSE,149,0.0,-999.0,85,0.00,,,0.00,0,Wunderground v.1.15,2013-03-02 01:53:00,
2013-03-01 17:54:00,54.1,49.7,30.28,SSE,149,0.0,-999.0,85,0.00,,,0.00,0,Wunderground v.1.15,2013-03-02 01:54:00,
2013-03-01 17:55:00,54.1,49.7,30.28,South,176,3.0,-999.0,85,0.00,,,0.00,0,Wunderground v.1.15,2013-03-02 01:55:00,
2013-03-01 17:57:00,54.1,49.7,30.28,East,80,0.0,-999.0,85,0.00,,,0.00,0,Wunderground v.1.15,2013-03-02 01:57:00,
2013-03-01 17:58:00,54.1,49.7,30.28,WSW,256,0.0,-999.0,85,0.00,,,0.00,0,Wunderground v.1.15,2013-03-02 01:58:00,
2013-03-01 17:59:00,54.1,49.7,30.28,SE,129,3.0,-999.0,85,0.00,,,0.00,0,Wunderground v.1.15,2013-03-02 01:59:00,
2013-03-01 18:00:00,53.9,49.5,30.28,SE,145,2.0,-999.0,85,0.00,,,0.00,0,Wunderground v.1.15,2013-03-02 02:00:00,
2013-03-01 18:02:00,53.9,49.5,30.28,SE,125,1.0,-999.0,85,0.00,,,0.00,0,Wunderground v.1.15,2013-03-02 02:02:00,
2013-03-01 18:03:00,53.9,49.5,30.28,SE,138,6.0,-999.0,85,0.00,,,0.00,0,Wunderground v.1.15,2013-03-02 02:03:00,
2013-03-01 18:04:00,53.9,49.5,30.28,SSE,148,2.0,-999.0,85,0.00,,,0.00,0,Wunderground v.1.15,2013-03-02 02:04:00,
2013-03-01 18:05:00,53.9,49.5,30.28,South,191,2.0,-999.0,85,0.00,,,0.00,0,Wunderground v.1.15,2013-03-02 02:05:00,
2013-03-01 18:08:00,54.1,49.4,30.28,SE,145,1.0,-999.0,84,0.00,,,0.00,0,Wunderground v.1.15,2013-03-02 02:08:00,
2013-03-01 18:09:00,54.1,49.4,30.28,SSE,149,6.0,-999.0,84,0.00,,,0.00,0,Wunderground v.1.15,2013-03-02 02:09:00,
2013-03-01 18:11:00,54.1,49.4,30.28,South,189,2.0,-999.0,84,0.00,,,0.00,0,Wunderground v.1.15,2013-03-02 02:11:00,
2013-03-01 18:13:00,54.1,49.4,30.28,SSE,157,1.0,-999.0,84,0.00,,,0.00,0,Wunderground v.1.15,2013-03-02 02:13:00,
2013-03-01 18:14:00,54.1,49.4,30.28,SSE,157,0.0,-999.0,84,0.00,,,0.00,0,Wunderground v.1.15,2013-03-02 02:14:00,
2013-03-01 18:16:00,54.1,49.4,30.28,SE,139,2.0,-999.0,84,0.00,,,0.00,0,Wunderground v.1.15,2013-03-02 02:16:00,
2013-03-01 18:18:00,54.1,49.4,30.28,SE,138,0.0,-999.0,84,0.00,,,0.00,0,Wunderground v.1.15,2013-03-02 02:18:00,
2013-03-01 18:19:00,54.1,49.4,30.28,SE,139,0.0,-999.0,84,0.00,,,0.00,0,Wunderground v.1.15,2013-03-02 02:19:00,
2013-03-01 18:20:00,54.1,49.4,30.28,SE,141,0.0,-999.0,84,0.00,,,0.00,0,Wunderground v.1.15,2013-03-02 02:20:00,
2013-03-01 18:21:00,54.1,49.4,30.28,East,98,2.0,-999.0,84,0.00,,,0.00,0,Wunderground v.1.15,2013-03-02 02:21:00,
2013-03-01 18:23:00,54.1,49.4,30.28,ESE,112,2.0,-999.0,84,0.00,,,0.00,0,Wunderground v.1.15,2013-03-02 02:23:00,
2013-03-01 18:25:00,54.1,49.4,30.28,WNW,289,1.0,-999.0,84,0.00,,,0.00,0,Wunderground v.1.15,2013-03-02 02:25:00,
2013-03-01 18:26:00,53.9,49.2,30.28,SSE,152,2.0,-999.0,84,0.00,,,0.00,0,Wunderground v.1.15,2013-03-02 02:26:00,
2013-03-01 18:27:00,53.9,49.2,30.28,SSE,152,0.0,-999.0,84,0.00,,,0.00,0,Wunderground v.1.15,2013-03-02 02:27:00,
2013-03-01 18:28:00,53.9,49.5,30.28,SE,146,3.0,-999.0,85,0.00,,,0.00,0,Wunderground v.1.15,2013-03-02 02:28:00,
2013-03-01 18:30:00,53.9,49.5,30.28,ESE,102,3.0,-999.0,85,0.00,,,0.00,0,Wunderground v.1.15,2013-03-02 02:30:00,
2013-03-01 18:31:00,53.9,49.5,30.29,SSW,197,3.0,-999.0,85,0.00,,,0.00,0,Wunderground v.1.15,2013-03-02 02:31:00,
2013-03-01 18:32:00,53.9,49.5,30.29,SE,135,5.0,-999.0,85,0.00,,,0.00,0,Wunderground v.1.15,2013-03-02 02:32:00,
2013-03-01 18:33:00,53.9,49.2,30.29,SE,133,1.0,-999.0,84,0.00,,,0.00,0,Wunderground v.1.15,2013-03-02 02:33:00,
2013-03-01 18:35:00,53.9,49.2,30.29,ESE,121,3.0,-999.0,84,0.00,,,0.00,0,Wunderground v.1.15,2013-03-02 02:35:00,
2013-03-01 18:36:00,53.9,49.2,30.29,ESE,121,1.0,-999.0,84,0.00,,,0.00,0,Wunderground v.1.15,2013-03-02 02:36:00,
2013-03-01 18:37:00,53.9,49.5,30.29,SE,136,1.0,-999.0,85,0.00,,,0.00,0,Wunderground v.1.15,2013-03-02 02:37:00,
2013-03-01 18:38:00,53.9,49.2,30.29,SSW,200,0.0,-999.0,84,0.00,,,0.00,0,Wunderground v.1.15,2013-03-02 02:38:00,
2013-03-01 18:40:00,53.9,49.2,30.29,South,173,0.0,-999.0,84,0.00,,,0.00,0,Wunderground v.1.15,2013-03-02 02:40:00,
2013-03-01 18:41:00,53.9,49.2,30.29,ESE,112,6.0,-999.0,84,0.00,,,0.00,0,Wunderground v.1.15,2013-03-02 02:41:00,
2013-03-01 18:44:00,53.8,49.1,30.29,ESE,118,5.0,-999.0,84,0.00,,,0.00,0,Wunderground v.1.15,2013-03-02 02:44:00,
2013-03-01 18:45:00,53.8,49.1,30.28,SSE,150,2.0,-999.0,84,0.00,,,0.00,0,Wunderground v.1.15,2013-03-02 02:45:00,
2013-03-01 18:47:00,53.8,49.1,30.28,SE,128,3.0,-999.0,84,0.00,,,0.00,0,Wunderground v.1.15,2013-03-02 02:47:00,
2013-03-01 18:49:00,53.8,49.1,30.28,SE,132,4.0,-999.0,84,0.00,,,0.00,0,Wunderground v.1.15,2013-03-02 02:49:00,
2013-03-01 18:51:00,53.8,49.1,30.28,SE,145,3.0,-999.0,84,0.00,,,0.00,0,Wunderground v.1.15,2013-03-02 02:51:00,
2013-03-01 18:52:00,53.8,49.1,30.28,SSE,153,1.0,-999.0,84,0.00,,,0.00,0,Wunderground v.1.15,2013-03-02 02:52:00,
2013-03-01 18:54:00,53.8,49.1,30.28,SSW,197,2.0,-999.0,84,0.00,,,0.00,0,Wunderground v.1.15,2013-03-02 02:54:00,
2013-03-01 18:56:00,53.8,49.1,30.28,SE,139,1.0,-999.0,84,0.00,,,0.00,0,Wunderground v.1.15,2013-03-02 02:56:00,
2013-03-01 18:57:00,53.7,49.0,30.28,SE,139,0.0,-999.0,84,0.00,,,0.00,0,Wunderground v.1.15,2013-03-02 02:57:00,
2013-03-01 18:59:00,53.7,49.0,30.28,SE,132,2.0,-999.0,84,0.00,,,0.00,0,Wunderground v.1.15,2013-03-02 02:59:00,
2013-03-01 19:00:00,53.7,49.0,30.28,SE,132,1.0,-999.0,84,0.00,,,0.00,0,Wunderground v.1.15,2013-03-02 03:00:00,
2013-03-01 19:01:00,53.7,49.0,30.28,SSE,149,2.0,-999.0,84,0.00,,,0.00,0,Wunderground v.1.15,2013-03-02 03:01:00,
2013-03-01 19:02:00,53.7,49.0,30.28,SSE,162,10.0,-999.0,84,0.00,,,0.00,0,Wunderground v.1.15,2013-03-02 03:02:00,
2013-03-01 19:04:00,53.7,49.0,30.28,SE,131,3.0,-999.0,84,0.00,,,0.00,0,Wunderground v.1.15,2013-03-02 03:04:00,
2013-03-01 19:05:00,53.7,49.0,30.28,South,170,3.0,-999.0,84,0.00,,,0.00,0,Wunderground v.1.15,2013-03-02 03:05:00,
2013-03-01 19:06:00,53.7,49.0,30.28,SE,126,7.0,-999.0,84,0.00,,,0.00,0,Wunderground v.1.15,2013-03-02 03:06:00,
2013-03-01 19:08:00,53.7,49.0,30.28,SSE,163,3.0,-999.0,84,0.00,,,0.00,0,Wunderground v.1.15,2013-03-02 03:08:00,
2013-03-01 19:09:00,53.5,48.5,30.28,ESE,114,2.0,-999.0,83,0.00,,,0.00,0,Wunderground v.1.15,2013-03-02 03:09:00,
2013-03-01 19:10:00,53.5,48.8,30.28,SE,131,2.0,-999.0,84,0.00,,,0.00,0,Wunderground v.1.15,2013-03-02 03:10:00,
2013-03-01 19:12:00,53.5,48.8,30.28,North,6,0.0,-999.0,84,0.00,,,0.00,0,Wunderground v.1.15,2013-03-02 03:12:00,
2013-03-01 19:13:00,53.5,48.5,30.28,SE,145,6.0,-999.0,83,0.00,,,0.00,0,Wunderground v.1.15,2013-03-02 03:13:00,
2013-03-01 19:14:00,53.5,48.5,30.28,SSE,166,0.0,-999.0,83,0.00,,,0.00,0,Wunderground v.1.15,2013-03-02 03:14:00,
2013-03-01 19:15:00,53.5,48.5,30.29,SSE,166,0.0,-999.0,83,0.00,,,0.00,0,Wunderground v.1.15,2013-03-02 03:15:00,
2013-03-01 19:17:00,53.5,48.8,30.29,SE,139,2.0,-999.0,84,0.00,,,0.00,0,Wunderground v.1.15,2013-03-02 03:17:00,
2013-03-01 19:18:00,53.5,48.5,30.29,SE,145,2.0,-999.0,83,0.00,,,0.00,0,Wunderground v.1.15,2013-03-02 03:18:00,
2013-03-01 19:20:00,53.5,48.5,30.29,SSE,149,0.0,-999.0,83,0.00,,,0.00,0,Wunderground v.1.15,2013-03-02 03:20:00,
2013-03-01 19:22:00,53.5,48.5,30.29,ESE,114,3.0,-999.0,83,0.00,,,0.00,0,Wunderground v.1.15,2013-03-02 03:22:00,
2013-03-01 19:23:00,53.5,48.5,30.29,South,179,0.0,-999.0,83,0.00,,,0.00,0,Wunderground v.1.15,2013-03-02 03:23:00,
2013-03-01 19:25:00,53.4,48.4,30.29,SE,133,3.0,-999.0,83,0.00,,,0.00,0,Wunderground v.1.15,2013-03-02 03:25:00,
2013-03-01 19:27:00,53.4,48.7,30.29,ESE,119,1.0,-999.0,84,0.00,,,0.00,0,Wunderground v.1.15,2013-03-02 03:27:00,
2013-03-01 19:29:00,53.4,48.4,30.29,SE,133,2.0,-999.0,83,0.00,,,0.00,0,Wunderground v.1.15,2013-03-02 03:29:00,
2013-03-01 19:30:00,53.4,48.4,30.29,SSE,167,5.0,-999.0,83,0.00,,,0.00,0,Wunderground v.1.15,2013-03-02 03:30:00,
2013-03-01 19:32:00,53.4,48.7,30.29,SSE,148,6.0,-999.0,84,0.00,,,0.00,0,Wunderground v.1.15,2013-03-02 03:32:00,
2013-03-01 19:34:00,53.4,48.4,30.29,SSE,166,1.0,-999.0,83,0.00,,,0.00,0,Wunderground v.1.15,2013-03-02 03:34:00,
2013-03-01 19:36:00,53.4,48.4,30.29,SE,133,1.0,-999.0,83,0.00,,,0.00,0,Wunderground v.1.15,2013-03-02 03:36:00,
2013-03-01 19:38:00,53.4,48.7,30.29,ESE,122,2.0,-999.0,84,0.00,,,0.00,0,Wunderground v.1.15,2013-03-02 03:38:00,
2013-03-01 19:39:00,53.4,48.7,30.29,ESE,119,3.0,-999.0,84,0.00,,,0.00,0,Wunderground v.1.15,2013-03-02 03:39:00,
2013-03-01 19:41:00,53.4,48.4,30.29,SE,142,2.0,-999.0,83,0.00,,,0.00,0,Wunderground v.1.15,2013-03-02 03:41:00,
2013-03-01 19:43:00,53.4,48.7,30.29,South,174,0.0,-999.0,84,0.00,,,0.00,0,Wunderground v.1.15,2013-03-02 03:43:00,
2013-03-01 19:44:00,53.4,48.7,30.29,ESE,121,1.0,-999.0,84,0.00,,,0.00,0,Wunderground v.1.15,2013-03-02 03:44:00,
2013-03-01 19:46:00,53.4,48.7,30.28,SSE,150,3.0,-999.0,84,0.00,,,0.00,0,Wunderground v.1.15,2013-03-02 03:46:00,
2013-03-01 19:48:00,53.4,48.7,30.28,SE,125,2.0,-999.0,84,0.00,,,0.00,0,Wunderground v.1.15,2013-03-02 03:48:00,
2013-03-01 19:49:00,53.4,48.7,30.28,SE,126,0.0,-999.0,84,0.00,,,0.00,0,Wunderground v.1.15,2013-03-02 03:49:00,
2013-03-01 19:51:00,53.4,48.7,30.28,SE,133,2.0,-999.0,84,0.00,,,0.00,0,Wunderground v.1.15,2013-03-02 03:51:00,
2013-03-01 19:54:00,53.4,48.7,30.28,SSE,155,1.0,-999.0,84,0.00,,,0.00,0,Wunderground v.1.15,2013-03-02 03:54:00,
2013-03-01 19:56:00,53.4,48.7,30.28,SE,135,2.0,-999.0,84,0.00,,,0.00,0,Wunderground v.1.15,2013-03-02 03:56:00,
2013-03-01 19:59:00,53.4,48.7,30.28,SE,146,0.0,-999.0,84,0.00,,,0.00,0,Wunderground v.1.15,2013-03-02 03:59:00,
2013-03-01 20:00:00,53.4,48.7,30.28,SSE,166,1.0,-999.0,84,0.00,,,0.00,0,Wunderground v.1.15,2013-03-02 04:00:00,
2013-03-01 20:02:00,53.4,48.7,30.28,ESE,114,2.0,-999.0,84,0.00,,,0.00,0,Wunderground v.1.15,2013-03-02 04:02:00,
2013-03-01 20:04:00,53.4,48.7,30.28,SSE,160,1.0,-999.0,84,0.00,,,0.00,0,Wunderground v.1.15,2013-03-02 04:04:00,
2013-03-01 20:05:00,53.4,48.7,30.28,SSE,160,0.0,-999.0,84,0.00,,,0.00,0,Wunderground v.1.15,2013-03-02 04:05:00,
2013-03-01 20:07:00,53.2,48.5,30.28,South,177,0.0,-999.0,84,0.00,,,0.00,0,Wunderground v.1.15,2013-03-02 04:07:00,
2013-03-01 20:09:00,53.2,48.5,30.28,South,184,4.0,-999.0,84,0.00,,,0.00,0,Wunderground v.1.15,2013-03-02 04:09:00,
2013-03-01 20:10:00,53.2,48.8,30.28,SE,141,3.0,-999.0,85,0.00,,,0.00,0,Wunderground v.1.15,2013-03-02 04:10:00,
2013-03-01 20:12:00,53.2,48.5,30.28,ESE,114,0.0,-999.0,84,0.00,,,0.00,0,Wunderground v.1.15,2013-03-02 04:12:00,
2013-03-01 20:13:00,53.2,48.5,30.28,SE,125,1.0,-999.0,84,0.00,,,0.00,0,Wunderground v.1.15,2013-03-02 04:13:00,
2013-03-01 20:14:00,53.2,48.5,30.28,SE,124,3.0,-999.0,84,0.00,,,0.00,0,Wunderground v.1.15,2013-03-02 04:14:00,
2013-03-01 20:15:00,53.2,48.5,30.29,SSE,156,0.0,-999.0,84,0.00,,,0.00,0,Wunderground v.1.15,2013-03-02 04:15:00,
2013-03-01 20:17:00,53.2,48.2,30.29,SSE,150,1.0,-999.0,83,0.00,,,0.00,0,Wunderground v.1.15,2013-03-02 04:17:00,
2013-03-01 20:18:00,53.2,48.2,30.29,ESE,122,2.0,-999.0,83,0.00,,,0.00,0,Wunderground v.1.15,2013-03-02 04:18:00,
2013-03-01 20:19:00,53.4,48.4,30.29,SSE,167,3.0,-999.0,83,0.00,,,0.00,0,Wunderground v.1.15,2013-03-02 04:19:00,
2013-03-01 20:21:00,53.4,48.4,30.29,SE,131,0.0,-999.0,83,0.00,,,0.00,0,Wunderground v.1.15,2013-03-02 04:21:00,
2013-03-01 20:22:00,53.4,48.4,30.29,SE,132,0.0,-999.0,83,0.00,,,0.00,0,Wunderground v.1.15,2013-03-02 04:22:00,
2013-03-01 20:23:00,53.4,48.7,30.29,SE,132,1.0,-999.0,84,0.00,,,0.00,0,Wunderground v.1.15,2013-03-02 04:23:00,
2013-03-01 20:25:00,53.4,48.4,30.29,SE,132,1.0,-999.0,83,0.00,,,0.00,0,Wunderground v.1.15,2013-03-02 04:25:00,
2013-03-01 20:26:00,53.4,48.4,30.29,SE,132,2.0,-999.0,83,0.00,,,0.00,0,Wunderground v.1.15,2013-03-02 04:26:00,
2013-03-01 20:28:00,53.4,48.4,30.29,ENE,69,2.0,-999.0,83,0.00,,,0.00,0,Wunderground v.1.15,2013-03-02 04:28:00,
2013-03-01 20:30:00,53.2,48.2,30.28,SE,141,1.0,-999.0,83,0.00,,,0.00,0,Wunderground v.1.15,2013-03-02 04:30:00,
2013-03-01 20:32:00,53.2,48.2,30.28,SE,129,5.0,-999.0,83,0.00,,,0.00,0,Wunderground v.1.15,2013-03-02 04:32:00,
2013-03-01 20:33:00,53.2,48.2,30.28,SSE,150,1.0,-999.0,83,0.00,,,0.00,0,Wunderground v.1.15,2013-03-02 04:33:00,
2013-03-01 20:35:00,53.4,48.0,30.28,ESE,117,0.0,-999.0,82,0.00,,,0.00,0,Wunderground v.1.15,2013-03-02 04:35:00,
2013-03-01 20:37:00,53.4,48.0,30.28,SE,136,2.0,-999.0,82,0.00,,,0.00,0,Wunderground v.1.15,2013-03-02 04:37:00,
2013-03-01 20:38:00,53.4,48.0,30.28,SE,138,0.0,-999.0,82,0.00,,,0.00,0,Wunderground v.1.15,2013-03-02 04:38:00,
2013-03-01 20:39:00,53.4,48.0,30.28,SE,138,1.0,-999.0,82,0.00,,,0.00,0,Wunderground v.1.15,2013-03-02 04:39:00,
2013-03-01 20:41:00,53.5,48.1,30.28,SSE,166,0.0,-999.0,82,0.00,,,0.00,0,Wunderground v.1.15,2013-03-02 04:41:00,
2013-03-01 20:43:00,53.5,48.1,30.28,SSE,152,3.0,-999.0,82,0.00,,,0.00,0,Wunderground v.1.15,2013-03-02 04:43:00,
2013-03-01 20:44:00,53.5,48.1,30.28,SSE,150,1.0,-999.0,82,0.00,,,0.00,0,Wunderground v.1.15,2013-03-02 04:44:00,
2013-03-01 20:45:00,53.5,48.1,30.28,SE,143,0.0,-999.0,82,0.00,,,0.00,0,Wunderground v.1.15,2013-03-02 04:45:00,
2013-03-01 20:46:00,53.5,48.1,30.29,SE,143,0.0,-999.0,82,0.00,,,0.00,0,Wunderground v.1.15,2013-03-02 04:46:00,
2013-03-01 20:48:00,53.5,48.1,30.29,SE,131,1.0,-999.0,82,0.00,,,0.00,0,Wunderground v.1.15,2013-03-02 04:48:00,
2013-03-01 20:49:00,53.5,48.1,30.29,SE,131,1.0,-999.0,82,0.00,,,0.00,0,Wunderground v.1.15,2013-03-02 04:49:00,
2013-03-01 20:50:00,53.5,48.1,30.29,SE,139,2.0,-999.0,82,0.00,,,0.00,0,Wunderground v.1.15,2013-03-02 04:50:00,
2013-03-01 20:51:00,53.4,48.0,30.29,SE,139,1.0,-999.0,82,0.00,,,0.00,0,Wunderground v.1.15,2013-03-02 04:51:00,
2013-03-01 20:54:00,53.4,48.0,30.29,ENE,64,1.0,-999.0,82,0.00,,,0.00,0,Wunderground v.1.15,2013-03-02 04:54:00,
2013-03-01 20:55:00,53.4,48.0,30.29,SE,143,4.0,-999.0,82,0.00,,,0.00,0,Wunderground v.1.15,2013-03-02 04:55:00,
2013-03-01 20:56:00,53.4,48.0,30.29,ESE,109,2.0,-999.0,82,0.00,,,0.00,0,Wunderground v.1.15,2013-03-02 04:56:00,
2013-03-01 20:59:00,53.4,48.4,30.29,South,184,1.0,-999.0,83,0.00,,,0.00,0,Wunderground v.1.15,2013-03-02 04:59:00,
2013-03-01 21:00:00,53.2,48.2,30.29,SE,133,2.0,-999.0,83,0.00,,,0.00,0,Wunderground v.1.15,2013-03-02 05:00:00,
2013-03-01 21:02:00,53.2,48.2,30.29,WNW,286,1.0,-999.0,83,0.00,,,0.00,0,Wunderground v.1.15,2013-03-02 05:02:00,
2013-03-01 21:05:00,53.2,48.2,30.29,SSE,159,2.0,-999.0,83,0.00,,,0.00,0,Wunderground v.1.15,2013-03-02 05:05:00,
2013-03-01 21:07:00,53.2,48.2,30.29,SE,131,2.0,-999.0,83,0.00,,,0.00,0,Wunderground v.1.15,2013-03-02 05:07:00,
2013-03-01 21:08:00,53.2,48.2,30.29,ESE,102,2.0,-999.0,83,0.00,,,0.00,0,Wunderground v.1.15,2013-03-02 05:08:00,
2013-03-01 21:11:00,53.2,48.2,30.29,SSE,152,1.0,-999.0,83,0.00,,,0.00,0,Wunderground v.1.15,2013-03-02 05:11:00,
2013-03-01 21:12:00,53.2,48.2,30.29,SSE,152,2.0,-999.0,83,0.00,,,0.00,0,Wunderground v.1.15,2013-03-02 05:12:00,
2013-03-01 21:13:00,53.2,48.2,30.29,SSE,150,2.0,-999.0,83,0.00,,,0.00,0,Wunderground v.1.15,2013-03-02 05:13:00,
2013-03-01 21:16:00,53.4,48.4,30.28,SE,139,3.0,-999.0,83,0.00,,,0.00,0,Wunderground v.1.15,2013-03-02 05:16:00,
2013-03-01 21:17:00,53.4,48.4,30.28,SSE,155,2.0,-999.0,83,0.00,,,0.00,0,Wunderground v.1.15,2013-03-02 05:17:00,
2013-03-01 21:19:00,53.4,48.7,30.28,South,170,1.0,-999.0,84,0.00,,,0.00,0,Wunderground v.1.15,2013-03-02 05:19:00,
2013-03-01 21:21:00,53.2,48.5,30.28,SE,125,1.0,-999.0,84,0.00,,,0.00,0,Wunderground v.1.15,2013-03-02 05:21:00,
2013-03-01 21:22:00,53.2,48.5,30.28,SE,125,0.0,-999.0,84,0.00,,,0.00,0,Wunderground v.1.15,2013-03-02 05:22:00,
2013-03-01 21:24:00,53.2,48.5,30.28,SE,125,3.0,-999.0,84,0.00,,,0.00,0,Wunderground v.1.15,2013-03-02 05:24:00,
2013-03-01 21:26:00,53.2,48.5,30.28,SE,135,1.0,-999.0,84,0.00,,,0.00,0,Wunderground v.1.15,2013-03-02 05:26:00,
2013-03-01 21:28:00,53.2,48.8,30.28,ESE,112,1.0,-999.0,85,0.00,,,0.00,0,Wunderground v.1.15,2013-03-02 05:28:00,
2013-03-01 21:29:00,53.1,48.7,30.28,ESE,111,0.0,-999.0,85,0.00,,,0.00,0,Wunderground v.1.15,2013-03-02 05:29:00,
2013-03-01 21:31:00,53.1,48.7,30.27,ESE,112,0.0,-999.0,85,0.00,,,0.00,0,Wunderground v.1.15,2013-03-02 05:31:00,
2013-03-01 21:33:00,53.1,48.7,30.27,SSE,165,0.0,-999.0,85,0.00,,,0.00,0,Wunderground v.1.15,2013-03-02 05:33:00,
2013-03-01 21:35:00,52.9,48.8,30.27,SE,133,2.0,-999.0,86,0.00,,,0.00,0,Wunderground v.1.15,2013-03-02 05:35:00,
2013-03-01 21:37:00,52.9,48.8,30.27,SSE,165,6.0,-999.0,86,0.00,,,0.00,0,Wunderground v.1.15,2013-03-02 05:37:00,
2013-03-01 21:38:00,52.9,48.8,30.27,ESE,108,3.0,-999.0,86,0.00,,,0.00,0,Wunderground v.1.15,2013-03-02 05:38:00,
2013-03-01 21:39:00,52.9,48.8,30.27,SE,146,1.0,-999.0,86,0.00,,,0.00,0,Wunderground v.1.15,2013-03-02 05:39:00,
2013-03-01 21:40:00,52.9,48.8,30.27,SE,146,1.0,-999.0,86,0.00,,,0.00,0,Wunderground v.1.15,2013-03-02 05:40:00,
2013-03-01 21:42:00,52.9,48.8,30.27,SE,136,2.0,-999.0,86,0.00,,,0.00,0,Wunderground v.1.15,2013-03-02 05:42:00,
2013-03-01 21:43:00,52.9,48.8,30.27,SE,138,1.0,-999.0,86,0.00,,,0.00,0,Wunderground v.1.15,2013-03-02 05:43:00,
2013-03-01 21:44:00,52.9,48.8,30.27,SE,138,0.0,-999.0,86,0.00,,,0.00,0,Wunderground v.1.15,2013-03-02 05:44:00,
2013-03-01 21:45:00,52.9,48.8,30.28,SE,138,0.0,-999.0,86,0.00,,,0.00,0,Wunderground v.1.15,2013-03-02 05:45:00,
2013-03-01 21:47:00,52.9,48.8,30.28,SE,142,0.0,-999.0,86,0.00,,,0.00,0,Wunderground v.1.15,2013-03-02 05:47:00,
2013-03-01 21:49:00,52.9,48.8,30.28,SE,128,2.0,-999.0,86,0.00,,,0.00,0,Wunderground v.1.15,2013-03-02 05:49:00,
2013-03-01 21:50:00,52.9,48.8,30.28,SSE,159,2.0,-999.0,86,0.00,,,0.00,0,Wunderground v.1.15,2013-03-02 05:50:00,
2013-03-01 21:51:00,52.9,48.8,30.28,SSE,148,2.0,-999.0,86,0.00,,,0.00,0,Wunderground v.1.15,2013-03-02 05:51:00,
2013-03-01 21:53:00,52.9,48.8,30.28,SE,124,1.0,-999.0,86,0.00,,,0.00,0,Wunderground v.1.15,2013-03-02 05:53:00,
2013-03-01 21:54:00,52.9,48.8,30.28,SSE,155,2.0,-999.0,86,0.00,,,0.00,0,Wunderground v.1.15,2013-03-02 05:54:00,
2013-03-01 21:56:00,52.9,48.8,30.28,ESE,118,2.0,-999.0,86,0.00,,,0.00,0,Wunderground v.1.15,2013-03-02 05:56:00,
2013-03-01 21:58:00,52.9,48.8,30.28,SE,145,0.0,-999.0,86,0.00,,,0.00,0,Wunderground v.1.15,2013-03-02 05:58:00,
2013-03-01 22:00:00,52.8,48.7,30.28,SE,138,2.0,-999.0,86,0.00,,,0.00,0,Wunderground v.1.15,2013-03-02 06:00:00,
2013-03-01 22:01:00,52.8,48.7,30.28,SE,141,4.0,-999.0,86,0.00,,,0.00,0,Wunderground v.1.15,2013-03-02 06:01:00,
2013-03-01 22:03:00,52.9,48.8,30.28,SSW,213,0.0,-999.0,86,0.00,,,0.00,0,Wunderground v.1.15,2013-03-02 06:03:00,
2013-03-01 22:05:00,52.8,48.7,30.28,SE,131,13.0,-999.0,86,0.00,,,0.00,0,Wunderground v.1.15,2013-03-02 06:05:00,
2013-03-01 22:07:00,52.8,48.7,30.28,SE,135,3.0,-999.0,86,0.00,,,0.00,0,Wunderground v.1.15,2013-03-02 06:07:00,
2013-03-01 22:08:00,52.9,48.8,30.28,SE,129,2.0,-999.0,86,0.00,,,0.00,0,Wunderground v.1.15,2013-03-02 06:08:00,
2013-03-01 22:10:00,52.9,48.8,30.28,ESE,119,2.0,-999.0,86,0.00,,,0.00,0,Wunderground v.1.15,2013-03-02 06:10:00,
2013-03-01 22:12:00,52.9,48.8,30.28,SSE,163,0.0,-999.0,86,0.00,,,0.00,0,Wunderground v.1.15,2013-03-02 06:12:00,
2013-03-01 22:14:00,52.9,48.8,30.28,ESE,117,1.0,-999.0,86,0.00,,,0.00,0,Wunderground v.1.15,2013-03-02 06:14:00,
2013-03-01 22:15:00,52.9,48.8,30.28,SE,142,3.0,-999.0,86,0.00,,,0.00,0,Wunderground v.1.15,2013-03-02 06:15:00,
2013-03-01 22:17:00,52.9,48.8,30.27,SSE,148,0.0,-999.0,86,0.00,,,0.00,0,Wunderground v.1.15,2013-03-02 06:17:00,
2013-03-01 22:18:00,52.9,48.8,30.27,SE,145,3.0,-999.0,86,0.00,,,0.00,0,Wunderground v.1.15,2013-03-02 06:18:00,
2013-03-01 22:19:00,52.9,48.8,30.27,SSE,153,1.0,-999.0,86,0.00,,,0.00,0,Wunderground v.1.15,2013-03-02 06:19:00,
2013-03-01 22:20:00,52.9,48.8,30.27,SE,141,2.0,-999.0,86,0.00,,,0.00,0,Wunderground v.1.15,2013-03-02 06:20:00,
2013-03-01 22:22:00,52.9,48.5,30.27,SE,146,1.0,-999.0,85,0.00,,,0.00,0,Wunderground v.1.15,2013-03-02 06:22:00,
2013-03-01 22:23:00,52.9,48.5,30.27,SE,138,1.0,-999.0,85,0.00,,,0.00,0,Wunderground v.1.15,2013-03-02 06:23:00,
2013-03-01 22:24:00,52.9,48.5,30.27,East,100,0.0,-999.0,85,0.00,,,0.00,0,Wunderground v.1.15,2013-03-02 06:24:00,
2013-03-01 22:26:00,52.9,48.5,30.27,East,83,0.0,-999.0,85,0.00,,,0.00,0,Wunderground v.1.15,2013-03-02 06:26:00,
2013-03-01 22:28:00,52.9,48.5,30.27,East,83,1.0,-999.0,85,0.00,,,0.00,0,Wunderground v.1.15,2013-03-02 06:28:00,
2013-03-01 22:29:00,52.9,48.5,30.27,SE,145,3.0,-999.0,85,0.00,,,0.00,0,Wunderground v.1.15,2013-03-02 06:29:00,
2013-03-01 22:31:00,52.9,48.5,30.27,SSE,152,1.0,-999.0,85,0.00,,,0.00,0,Wunderground v.1.15,2013-03-02 06:31:00,
2013-03-01 22:33:00,52.9,48.5,30.27,SE,132,1.0,-999.0,85,0.00,,,0.00,0,Wunderground v.1.15,2013-03-02 06:33:00,
2013-03-01 22:34:00,52.9,48.5,30.27,SE,146,2.0,-999.0,85,0.00,,,0.00,0,Wunderground v.1.15,2013-03-02 06:34:00,
2013-03-01 22:36:00,52.9,48.5,30.27,SE,146,4.0,-999.0,85,0.00,,,0.00,0,Wunderground v.1.15,2013-03-02 06:36:00,
2013-03-01 22:38:00,52.9,48.8,30.27,SE,128,1.0,-999.0,86,0.00,,,0.00,0,Wunderground v.1.15,2013-03-02 06:38:00,
2013-03-01 22:40:00,52.9,48.8,30.27,SE,135,3.0,-999.0,86,0.00,,,0.00,0,Wunderground v.1.15,2013-03-02 06:40:00,
2013-03-01 22:41:00,52.9,48.8,30.27,SSE,148,3.0,-999.0,86,0.00,,,0.00,0,Wunderground v.1.15,2013-03-02 06:41:00,
2013-03-01 22:44:00,52.9,48.8,30.27,SE,143,2.0,-999.0,86,0.00,,,0.00,0,Wunderground v.1.15,2013-03-02 06:44:00,
2013-03-01 22:45:00,52.9,48.8,30.27,SE,143,0.0,-999.0,86,0.00,,,0.00,0,Wunderground v.1.15,2013-03-02 06:45:00,
2013-03-01 22:46:00,52.9,48.8,30.27,SE,135,1.0,-999.0,86,0.00,,,0.00,0,Wunderground v.1.15,2013-03-02 06:46:00,
2013-03-01 22:49:00,52.9,48.8,30.27,SSE,160,0.0,-999.0,86,0.00,,,0.00,0,Wunderground v.1.15,2013-03-02 06:49:00,
2013-03-01 22:50:00,52.9,48.8,30.27,SSE,160,2.0,-999.0,86,0.00,,,0.00,0,Wunderground v.1.15,2013-03-02 06:50:00,
2013-03-01 22:52:00,52.9,48.8,30.27,SSE,155,0.0,-999.0,86,0.00,,,0.00,0,Wunderground v.1.15,2013-03-02 06:52:00,
2013-03-01 22:54:00,52.9,49.1,30.27,East,95,1.0,-999.0,87,0.00,,,0.00,0,Wunderground v.1.15,2013-03-02 06:54:00,
2013-03-01 22:55:00,52.9,49.1,30.27,East,95,1.0,-999.0,87,0.00,,,0.00,0,Wunderground v.1.15,2013-03-02 06:55:00,
2013-03-01 22:57:00,52.9,49.1,30.27,East,95,1.0,-999.0,87,0.00,,,0.00,0,Wunderground v.1.15,2013-03-02 06:57:00,
2013-03-01 22:59:00,52.9,49.1,30.27,SW,225,2.0,-999.0,87,0.00,,,0.00,0,Wunderground v.1.15,2013-03-02 06:59:00,
2013-03-01 23:00:00,52.9,49.1,30.27,SW,225,0.0,-999.0,87,0.00,,,0.00,0,Wunderground v.1.15,2013-03-02 07:00:00,
2013-03-01 23:02:00,52.9,49.1,30.27,SW,218,0.0,-999.0,87,0.00,,,0.00,0,Wunderground v.1.15,2013-03-02 07:02:00,
2013-03-01 23:04:00,52.8,49.0,30.27,SW,218,0.0,-999.0,87,0.00,,,0.00,0,Wunderground v.1.15,2013-03-02 07:04:00,
2013-03-01 23:05:00,52.8,49.0,30.27,SW,218,0.0,-999.0,87,0.00,,,0.00,0,Wunderground v.1.15,2013-03-02 07:05:00,
2013-03-01 23:07:00,52.8,49.3,30.27,SE,139,1.0,-999.0,88,0.00,,,0.00,0,Wunderground v.1.15,2013-03-02 07:07:00,
2013-03-01 23:10:00,52.8,49.3,30.27,SE,128,2.0,-999.0,88,0.00,,,0.00,0,Wunderground v.1.15,2013-03-02 07:10:00,
2013-03-01 23:11:00,52.8,49.3,30.27,SE,128,2.0,-999.0,88,0.00,,,0.00,0,Wunderground v.1.15,2013-03-02 07:11:00,
2013-03-01 23:12:00,52.8,49.3,30.27,South,186,1.0,-999.0,88,0.00,,,0.00,0,Wunderground v.1.15,2013-03-02 07:12:00,
2013-03-01 23:15:00,52.8,49.3,30.27,SE,145,1.0,-999.0,88,0.00,,,0.00,0,Wunderground v.1.15,2013-03-02 07:15:00,
2013-03-01 23:16:00,52.6,49.1,30.26,SE,145,1.0,-999.0,88,0.00,,,0.00,0,Wunderground v.1.15,2013-03-02 07:16:00,
2013-03-01 23:17:00,52.6,49.1,30.26,SE,145,0.0,-999.0,88,0.00,,,0.00,0,Wunderground v.1.15,2013-03-02 07:17:00,
2013-03-01 23:20:00,52.6,49.1,30.26,SE,145,1.0,-999.0,88,0.00,,,0.00,0,Wunderground v.1.15,2013-03-02 07:20:00,
2013-03-01 23:22:00,52.6,49.1,30.26,SE,141,0.0,-999.0,88,0.00,,,0.00,0,Wunderground v.1.15,2013-03-02 07:22:00,
2013-03-01 23:23:00,52.6,49.1,30.26,SE,142,1.0,-999.0,88,0.00,,,0.00,0,Wunderground v.1.15,2013-03-02 07:23:00,
2013-03-01 23:25:00,52.6,49.1,30.26,SE,142,2.0,-999.0,88,0.00,,,0.00,0,Wunderground v.1.15,2013-03-02 07:25:00,
2013-03-01 23:27:00,52.6,49.1,30.26,WSW,241,2.0,-999.0,88,0.00,,,0.00,0,Wunderground v.1.15,2013-03-02 07:27:00,
2013-03-01 23:28:00,52.6,49.1,30.26,SSE,149,0.0,-999.0,88,0.00,,,0.00,0,Wunderground v.1.15,2013-03-02 07:28:00,
2013-03-01 23:30:00,52.6,49.1,30.26,SE,126,1.0,-999.0,88,0.00,,,0.00,0,Wunderground v.1.15,2013-03-02 07:30:00,
2013-03-01 23:33:00,52.6,49.1,30.26,SE,126,1.0,-999.0,88,0.00,,,0.00,0,Wunderground v.1.15,2013-03-02 07:33:00,
2013-03-01 23:34:00,52.6,49.1,30.26,SE,126,0.0,-999.0,88,0.00,,,0.00,0,Wunderground v.1.15,2013-03-02 07:34:00,
2013-03-01 23:35:00,52.6,49.1,30.26,SE,126,0.0,-999.0,88,0.00,,,0.00,0,Wunderground v.1.15,2013-03-02 07:35:00,
2013-03-01 23:38:00,52.6,49.1,30.26,SE,126,1.0,-999.0,88,0.00,,,0.00,0,Wunderground v.1.15,2013-03-02 07:38:00,
2013-03-01 23:39:00,52.6,49.1,30.26,ESE,102,2.0,-999.0,88,0.00,,,0.00,0,Wunderground v.1.15,2013-03-02 07:39:00,
2013-03-01 23:40:00,52.6,49.1,30.26,ESE,102,0.0,-999.0,88,0.00,,,0.00,0,Wunderground v.1.15,2013-03-02 07:40:00,
2013-03-01 23:41:00,52.6,49.1,30.26,ESE,102,2.0,-999.0,88,0.00,,,0.00,0,Wunderground v.1.15,2013-03-02 07:41:00,
2013-03-01 23:43:00,52.6,49.1,30.26,SE,145,1.0,-999.0,88,0.00,,,0.00,0,Wunderground v.1.15,2013-03-02 07:43:00,
2013-03-01 23:45:00,52.6,49.1,30.26,SSE,150,1.0,-999.0,88,0.00,,,0.00,0,Wunderground v.1.15,2013-03-02 07:45:00,
2013-03-01 23:46:00,52.6,49.4,30.26,East,87,5.0,-999.0,89,0.00,,,0.00,0,Wunderground v.1.15,2013-03-02 07:46:00,
2013-03-01 23:48:00,52.6,49.4,30.26,SSE,149,0.0,-999.0,89,0.00,,,0.00,0,Wunderground v.1.15,2013-03-02 07:48:00,
2013-03-01 23:50:00,52.6,49.1,30.26,South,173,1.0,-999.0,88,0.00,,,0.00,0,Wunderground v.1.15,2013-03-02 07:50:00,
2013-03-01 23:51:00,52.5,49.4,30.26,SE,143,0.0,-999.0,89,0.00,,,0.00,0,Wunderground v.1.15,2013-03-02 07:51:00,
2013-03-01 23:52:00,52.5,49.4,30.26,SE,143,0.0,-999.0,89,0.00,,,0.00,0,Wunderground v.1.15,2013-03-02 07:52:00,
2013-03-01 23:54:00,52.5,49.4,30.26,ESE,115,1.0,-999.0,89,0.00,,,0.00,0,Wunderground v.1.15,2013-03-02 07:54:00,
2013-03-01 23:56:00,52.5,49.4,30.26,ESE,117,1.0,-999.0,89,0.00,,,0.00,0,Wunderground v.1.15,2013-03-02 07:56:00,
2013-03-01 23:57:00,52.5,49.4,30.26,ESE,117,0.0,-999.0,89,0.00,,,0.00,0,Wunderground v.1.15,2013-03-02 07:57:00,
2013-03-01 23:59:00,52.5,49.4,30.26,SE,133,2.0,-999.0,89,0.00,,,0.00,0,Wunderground v.1.15,2013-03-02 07:59:00,